GFSCGP_700_spd_000.txt.gz
Wind_Speed
4 6 4 6 9 10 13 15 17 15 15 20 20 22 15 12 9 9 12 11 15 13 13 14 22 32 24 23 26 27 29 30 31 32 34 34 36 36 37 36 39 40 37 35
6 1 5 7 8 10 14 16 14 15 19 20 24 24 14 10 7 9 2 2 4 10 14 13 20 22 21 24 24 26 30 36 38 34 33 32 32 34 36 36 39 40 35 37
5 6 9 7 7 12 14 7 16 20 22 10 16 14 11 7 6 10 1 4 8 16 15 15 20 24 28 28 29 32 35 36 38 36 28 34 36 32 34 37 36 35 31 35
2 9 7 8 7 13 12 16 21 20 18 17 16 10 6 7 7 4 2 4 13 14 18 21 23 27 29 32 35 34 34 34 35 38 39 32 38 40 35 35 34 28 25 29
4 9 9 9 9 14 15 20 23 23 19 15 4 7 10 6 7 5 3 10 17 21 22 23 23 25 30 30 32 30 29 31 32 32 36 39 34 38 36 36 37 32 34 40
6 13 6 11 12 14 18 23 20 4 4 4 7 3 16 10 4 5 8 9 16 24 26 25 21 24 25 27 32 32 36 34 34 34 34 38 41 36 41 42 44 46 48 49
10 6 9 10 12 11 15 18 8 5 2 4 13 13 19 22 14 9 12 18 22 25 18 18 25 24 24 32 27 31 38 43 43 41 39 40 41 42 41 45 49 50 53 51
6 8 2 12 13 11 13 9 4 4 4 12 25 8 10 6 17 19 19 24 18 12 12 25 24 23 25 25 30 32 35 36 39 41 44 48 45 47 48 48 52 55 48 51
8 1 10 17 14 9 8 6 7 8 15 4 8 14 22 9 7 10 19 18 14 23 24 24 26 23 24 28 33 38 45 34 35 38 41 43 46 50 54 55 58 52 49 50
5 10 6 7 14 11 9 10 5 4 3 5 11 21 18 14 19 27 24 19 22 24 30 27 28 28 26 36 39 53 45 45 40 39 41 43 45 50 53 57 57 53 54 56
9 6 9 15 1 11 8 12 10 12 13 5 6 9 24 35 21 14 25 32 33 29 30 31 26 27 36 41 52 51 50 43 42 40 42 44 44 43 47 52 54 56 54 52
9 8 12 19 8 7 7 9 13 14 13 23 26 31 11 13 9 39 36 31 36 33 30 22 25 33 44 56 54 50 50 49 49 47 46 46 42 39 41 46 51 50 45 43
11 4 10 9 2 3 17 25 26 28 28 19 11 21 27 42 39 36 38 38 35 26 26 29 32 42 47 52 49 47 46 48 50 50 49 46 41 38 38 42 42 43 43 39
13 9 8 15 21 28 31 31 34 34 35 34 32 48 41 40 41 37 34 32 31 25 27 38 44 48 52 51 51 51 50 49 50 48 47 44 39 38 38 39 42 38 35 36
13 19 17 25 26 26 31 32 34 37 39 36 45 39 41 39 38 35 32 35 31 32 39 55 46 44 52 50 53 50 48 46 45 44 41 37 40 37 38 43 32 33 35 39
18 28 30 37 37 26 29 35 45 39 30 28 31 38 35 36 36 34 23 31 42 51 59 54 44 53 51 50 51 48 46 42 38 39 40 37 32 34 36 29 33 35 40 43
26 31 31 28 30 31 32 23 22 22 28 29 32 40 41 34 26 29 37 50 59 50 48 54 54 53 48 51 52 48 45 42 37 37 35 34 33 35 31 33 33 38 42 46
27 30 32 27 30 7 14 20 31 26 22 27 38 34 28 25 33 45 56 42 48 52 48 52 47 54 54 51 49 45 34 35 34 31 35 37 31 31 31 34 37 41 44 44
9 20 23 16 24 35 27 23 17 30 31 30 20 17 26 45 56 48 38 52 47 51 51 49 51 50 54 53 46 36 32 28 28 30 27 27 30 30 33 38 40 42 43 43
16 18 20 27 25 15 21 33 19 23 31 21 22 50 31 52 52 58 45 50 55 49 48 50 54 54 54 48 37 31 24 20 18 23 24 27 30 34 37 40 40 40 41 41
20 23 29 34 26 26 32 28 21 17 21 48 48 40 57 48 44 50 54 53 52 52 52 52 52 52 49 38 29 20 17 15 19 23 28 31 33 35 37 38 38 39 40 40
23 22 25 24 18 20 13 22 30 50 47 49 59 51 51 46 36 50 50 52 48 52 56 53 51 50 37 27 21 19 17 21 23 27 32 34 35 35 35 36 36 37 37 37
22 21 29 31 31 48 49 49 50 48 50 49 46 45 42 51 50 48 50 49 53 56 50 48 47 39 27 22 23 23 21 24 28 31 32 33 33 32 34 35 35 36 36 36
25 33 38 41 49 46 47 41 41 45 46 45 30 42 50 41 43 45 53 52 55 53 51 45 37 26 23 24 23 23 25 27 30 31 32 32 31 32 32 33 34 35 35 35
39 44 46 51 47 39 41 45 45 42 45 41 41 47 45 39 47 51 53 53 52 48 42 35 25 20 21 24 24 27 29 31 31 31 31 30 31 32 33 32 33 34 33 34
42 44 40 46 38 42 50 40 38 42 36 45 35 37 40 46 51 52 52 51 49 41 34 23 18 23 25 23 26 29 29 30 31 30 30 30 32 33 32 32 31 32 32 28

GFSCGP_700_spd_003.txt.gz
Wind_Speed
1 6 3 8 8 8 8 12 16 13 16 20 21 20 12 12 14 14 13 12 17 19 20 18 20 21 26 29 24 25 26 26 29 31 30 28 30 28 28 29 33 38 35 30
2 8 7 10 6 12 13 13 12 18 20 15 16 18 15 15 18 16 6 1 4 7 10 11 11 16 22 22 23 25 26 28 29 27 30 31 30 30 31 31 33 35 36 35
6 6 11 8 7 12 13 11 18 23 24 6 15 13 5 15 18 15 9 8 10 15 17 22 22 22 23 25 32 30 30 27 32 34 33 32 34 35 31 33 34 36 36 32
1 6 12 6 7 13 20 14 18 19 20 15 23 7 18 17 14 15 10 11 14 15 19 25 27 28 25 37 34 28 30 29 34 36 37 37 33 33 35 34 34 37 39 38
3 12 14 10 15 13 15 19 23 17 14 17 14 7 7 7 16 9 6 8 13 19 24 26 29 25 31 35 33 34 36 42 39 40 35 35 37 34 33 35 37 40 41 39
11 14 9 18 9 11 15 21 15 2 2 2 12 11 7 15 11 6 11 10 13 17 20 24 28 30 23 30 30 33 36 41 42 45 41 40 41 40 42 41 39 38 42 44
6 7 10 14 19 15 12 20 9 5 2 4 18 14 8 24 9 8 10 14 18 24 27 30 31 26 23 27 28 28 32 37 38 46 40 39 41 43 42 41 45 43 44 46
5 3 6 14 19 13 11 12 5 2 1 10 22 3 8 18 8 12 18 20 19 27 20 25 23 27 31 33 33 37 34 41 45 48 38 37 39 45 48 48 47 50 51 51
10 2 8 12 14 11 8 9 10 6 9 2 7 8 20 10 14 27 20 16 20 26 26 24 28 26 29 32 36 37 40 49 52 46 37 34 38 42 42 44 50 54 54 55
5 12 3 6 12 8 7 9 5 3 2 3 6 18 11 17 26 17 16 34 36 35 27 32 33 37 32 40 35 37 50 50 49 49 48 48 45 43 40 42 48 51 52 55
8 7 9 14 3 6 5 10 10 10 8 3 3 6 13 34 17 21 27 34 33 28 29 24 24 27 32 34 45 53 48 48 50 53 53 48 46 42 41 39 43 47 48 46
10 8 15 12 2 5 1 13 19 17 8 20 23 24 21 13 33 31 35 21 33 28 31 31 32 36 42 48 57 51 49 52 50 52 54 53 49 41 38 35 37 41 36 36
15 4 10 9 4 5 15 25 26 28 30 27 15 23 37 38 35 26 31 34 37 40 39 41 40 43 48 55 49 50 51 49 50 56 56 53 46 39 38 33 29 30 31 36
18 10 7 11 19 20 27 34 34 27 25 33 30 40 36 34 26 30 31 36 40 42 46 49 52 51 46 48 48 50 48 53 53 54 53 49 41 38 34 34 29 31 34 31
16 22 24 28 25 27 30 34 38 38 42 36 41 29 29 29 32 32 32 38 44 42 49 55 53 50 47 50 48 50 52 54 52 44 45 48 44 39 37 38 36 32 30 33
18 26 26 33 34 32 24 44 40 21 17 30 38 38 27 30 30 32 34 38 41 52 48 49 44 51 49 48 50 53 52 50 44 38 40 38 38 40 42 39 30 32 32 36
26 24 25 33 31 27 25 23 24 29 36 30 31 29 31 31 28 29 31 40 50 48 43 50 48 48 47 50 50 51 49 45 39 30 31 30 32 38 31 37 34 32 37 39
15 17 26 28 28 5 16 26 28 23 18 31 40 36 36 34 35 42 44 40 41 42 50 50 47 48 52 50 49 50 46 38 30 25 25 27 28 29 31 30 34 37 39 40
11 12 19 14 14 25 30 20 17 28 33 32 32 31 46 39 50 53 47 42 38 55 48 48 52 53 49 50 50 46 37 28 22 21 20 21 26 28 31 35 37 39 38 37
16 17 18 23 15 7 30 26 27 25 33 24 34 47 39 54 49 51 44 42 46 42 46 51 51 50 52 47 47 33 24 22 23 20 20 20 21 29 36 38 38 36 36 36
19 19 22 27 18 19 33 13 23 23 35 49 46 50 46 50 47 35 38 45 43 47 49 47 49 51 49 47 36 25 25 22 22 21 21 26 32 36 36 34 33 34 35 35
21 17 25 18 12 15 6 29 41 47 46 45 48 50 48 48 41 41 37 41 46 46 47 50 51 51 46 38 29 28 26 25 22 25 28 30 32 32 32 32 32 33 33 33
27 28 28 28 33 44 45 44 42 36 36 44 45 51 47 34 35 34 37 44 47 48 50 52 51 43 35 28 25 26 23 28 28 29 30 31 30 29 29 31 32 32 31 31
28 30 38 41 46 47 45 36 38 38 41 42 46 45 45 36 32 37 41 46 50 51 51 47 39 34 26 23 24 26 25 27 29 30 30 29 28 28 30 31 32 31 31 32
39 35 48 46 46 41 41 42 42 43 48 52 40 47 42 30 37 40 46 48 48 47 44 34 32 24 24 26 26 26 27 28 28 28 29 28 29 30 31 30 29 30 31 34
40 43 38 46 41 40 48 46 50 49 53 35 36 35 29 34 45 47 47 48 47 46 37 24 26 22 26 25 26 28 27 26 27 29 30 29 29 30 31 29 27 29 29 31

GFSCGP_700_spd_009.txt.gz
Wind_Speed
5 1 3 6 9 7 8 12 16 9 9 20 16 17 14 11 13 5 5 8 4 9 8 9 6 4 8 11 16 17 17 23 26 27 30 31 32 30 33 33 31 29 27 27
2 1 3 8 8 7 9 13 15 11 14 15 9 10 9 9 5 3 5 4 1 3 5 6 7 11 11 11 16 15 21 27 27 28 31 34 39 34 38 36 33 32 32 32
2 3 7 7 7 9 10 10 14 17 18 4 12 1 9 9 4 6 5 3 4 8 9 9 13 18 19 18 15 21 27 32 35 35 35 36 41 38 41 35 32 33 35 36
3 4 8 7 9 12 13 16 16 15 14 3 7 3 9 5 7 9 8 8 8 9 13 14 20 24 27 28 30 32 33 36 39 38 43 40 42 41 48 43 38 36 36 37
1 3 6 7 11 15 16 15 16 13 6 4 7 2 9 8 7 11 12 12 10 14 20 23 25 30 32 33 32 33 34 35 36 38 40 40 42 43 54 48 43 42 41 42
2 1 3 6 12 8 13 13 4 2 2 2 3 12 10 11 10 8 9 8 13 19 21 22 26 28 33 31 33 35 35 36 40 40 40 39 42 49 55 46 45 46 45 43
2 2 3 8 14 4 14 10 3 3 3 4 7 5 4 12 17 9 6 5 14 15 19 24 28 34 29 29 30 32 34 36 39 42 45 46 51 51 46 46 46 45 46 48
5 2 6 10 10 9 11 13 5 3 1 7 9 4 7 9 15 6 3 22 19 17 22 28 26 27 26 26 29 34 37 39 42 46 54 51 47 46 45 46 48 49 50 50
7 3 7 7 8 4 4 7 6 1 2 4 7 1 10 15 16 23 22 25 19 22 27 24 28 27 26 31 34 39 43 46 51 54 47 48 47 46 48 50 51 50 46 41
8 5 7 8 3 3 4 4 3 6 3 3 8 18 13 15 21 35 32 27 24 23 21 25 26 28 32 35 37 42 49 54 52 49 45 46 50 52 52 52 50 43 35 30
9 6 8 2 4 4 3 2 3 2 2 3 3 9 14 28 24 26 30 30 27 24 29 30 32 34 34 38 43 49 50 47 48 48 48 50 52 55 57 54 49 36 31 30
11 3 8 5 1 4 6 4 11 4 4 12 16 19 9 8 24 28 29 31 27 30 28 30 33 37 41 42 45 46 49 49 45 46 46 51 52 53 53 50 42 32 31 31
12 6 6 2 5 9 15 21 14 22 19 14 10 11 10 26 29 33 29 29 28 30 34 40 42 47 51 47 44 46 42 42 43 47 49 52 51 50 48 39 33 33 34 31
16 10 11 11 13 20 29 28 28 27 19 21 30 39 30 29 35 25 24 27 31 37 41 45 46 45 43 43 40 41 42 43 48 52 53 52 50 46 34 30 35 35 35 33
13 18 23 25 22 24 31 32 28 30 29 24 30 31 36 30 30 27 29 33 39 44 51 51 46 42 43 40 41 41 44 49 54 53 51 49 44 31 28 33 37 35 32 31
19 21 24 31 20 16 29 30 17 15 20 24 30 33 30 33 29 29 33 41 50 51 50 48 44 41 39 39 42 45 49 52 52 53 50 41 29 25 25 24 23 29 29 31
22 18 9 11 18 19 22 7 22 23 28 32 30 28 30 31 34 42 48 51 52 52 50 50 45 38 33 40 45 46 48 51 52 49 41 32 28 24 28 30 33 34 28 28
16 14 12 14 18 1 17 29 29 27 21 24 24 30 27 41 49 48 43 46 50 52 51 47 42 38 38 43 46 48 50 49 44 38 33 33 31 30 28 29 29 29 32 40
11 12 12 8 10 19 31 12 18 21 30 28 26 21 44 52 49 46 45 46 51 52 50 43 38 43 41 46 49 49 46 41 33 36 35 34 28 27 28 32 36 36 36 41
12 14 17 21 10 6 23 23 25 22 30 14 21 47 52 48 46 48 46 47 54 39 45 32 38 42 44 47 47 42 38 31 29 29 30 32 33 34 31 29 32 36 37 37
15 15 20 26 24 18 28 21 20 14 23 42 47 43 45 45 45 48 48 55 45 35 42 39 40 45 47 45 40 32 33 31 29 31 33 29 30 32 31 32 34 35 35 35
20 16 23 17 8 14 20 25 33 44 49 43 44 45 48 48 50 50 57 39 31 39 39 41 43 44 44 39 34 31 31 30 31 29 28 30 31 31 31 32 33 33 33 35
24 28 28 21 24 43 46 45 37 32 37 42 44 45 48 52 52 46 28 32 42 40 41 43 45 43 40 34 31 30 29 29 29 27 29 31 30 29 31 33 33 34 34 34
25 32 38 35 46 41 39 39 32 34 38 40 41 48 50 48 34 27 40 36 39 40 42 43 42 39 34 30 27 34 36 32 26 27 30 30 28 30 33 35 35 34 34 34
35 44 39 46 41 43 39 37 44 43 41 38 44 43 30 29 31 40 39 41 39 41 42 42 40 36 31 28 29 27 24 25 27 30 29 28 30 34 36 34 33 32 32 33
41 38 41 44 43 40 39 49 45 36 41 45 40 31 32 31 34 36 38 38 40 41 41 40 35 33 28 25 24 24 25 26 29 28 27 30 33 35 33 31 29 29 31 31

GFSCGP_700_spd_012.txt.gz
Wind_Speed
5 2 4 7 9 6 7 11 14 13 11 18 17 13 8 5 9 8 4 4 6 10 13 12 10 5 5 6 13 19 20 21 26 28 26 26 27 29 30 32 33 36 32 30
3 1 4 6 7 7 10 12 12 8 11 16 8 4 6 7 6 3 2 2 5 6 10 10 9 10 15 16 13 14 16 21 26 29 30 31 30 32 30 33 35 38 39 36
2 4 6 4 5 7 8 7 13 15 14 6 9 2 3 4 4 5 4 2 6 7 7 7 12 15 19 22 17 17 20 25 28 28 30 36 38 40 42 39 42 44 48 40
5 2 4 5 9 11 12 13 14 13 10 1 9 2 10 3 3 5 5 3 5 7 10 12 16 21 21 22 24 23 24 27 30 32 34 37 40 43 42 44 51 50 45 40
2 2 4 6 9 12 10 14 16 10 4 2 3 2 5 8 6 6 7 5 7 11 15 19 20 21 24 26 23 25 26 28 32 33 36 38 41 45 49 54 51 46 46 45
2 3 3 4 10 11 13 13 5 3 2 2 1 9 7 4 10 13 4 2 6 12 17 17 20 26 26 23 24 26 28 30 32 34 37 39 44 49 48 47 48 47 47 47
2 3 3 6 9 5 11 7 2 2 3 3 4 5 4 7 7 5 5 7 11 14 16 21 25 28 25 25 27 29 31 33 35 36 39 45 44 42 45 47 48 47 47 48
5 1 4 6 8 8 10 10 5 2 1 6 5 5 10 10 11 5 6 16 19 24 22 22 28 26 25 28 30 32 34 36 38 43 42 41 44 48 47 44 44 48 51 51
7 2 5 10 5 4 4 5 6 1 2 3 4 3 9 20 17 19 27 32 28 21 18 23 23 25 27 27 30 34 37 41 44 43 46 49 48 45 43 46 50 52 51 51
8 2 5 4 2 3 2 2 3 4 2 3 8 13 6 16 18 28 32 28 27 23 18 20 24 26 29 34 38 43 50 54 54 51 47 42 42 46 50 51 54 52 51 48
8 3 5 4 3 2 2 1 2 2 2 3 3 7 11 21 25 27 28 33 31 26 25 28 30 33 38 45 50 51 52 49 49 42 42 43 48 53 54 56 57 54 49 39
11 4 8 7 4 2 4 3 6 3 2 8 12 18 11 9 20 32 31 34 29 27 29 32 36 41 46 51 54 51 47 44 40 41 44 49 53 53 55 56 52 48 40 33
14 7 7 5 4 2 8 11 20 16 15 12 9 13 18 21 29 29 26 24 25 29 33 38 42 46 47 46 46 43 42 40 40 45 49 50 52 56 55 50 44 36 32 33
16 7 7 7 15 22 28 25 26 25 18 20 31 37 28 27 25 28 28 25 29 35 42 48 48 45 48 45 41 41 38 39 43 47 51 55 56 55 47 41 32 31 33 32
12 13 17 20 20 22 24 25 24 24 27 23 28 27 28 28 29 30 27 33 42 44 42 45 48 51 51 49 50 45 39 44 46 49 53 55 54 47 37 30 29 26 26 28
19 16 21 25 13 17 30 28 13 12 20 25 27 34 29 26 29 24 35 50 50 46 48 49 49 57 51 44 39 42 47 47 50 53 54 47 41 36 34 32 31 32 29 25
17 15 13 14 18 22 20 2 18 27 19 23 29 30 27 32 32 34 46 56 50 48 51 49 54 50 42 40 43 42 48 52 54 52 46 37 37 35 37 33 32 32 33 34
13 13 12 12 19 2 12 18 28 17 22 25 27 31 34 30 36 43 51 49 50 48 51 46 46 37 37 40 43 46 48 50 49 41 35 31 35 29 34 35 36 34 33 34
8 12 10 7 7 17 32 14 19 28 31 28 29 28 29 35 47 51 51 51 47 52 43 40 34 38 42 43 46 49 49 48 43 34 32 31 32 35 34 30 30 32 33 34
13 14 16 18 7 5 18 23 22 21 31 13 16 36 52 39 44 49 48 48 37 47 34 34 42 40 42 45 47 46 45 41 35 36 33 33 35 35 31 30 31 31 34 36
13 15 22 27 22 22 30 17 17 16 29 35 50 42 40 38 43 45 41 46 49 32 44 45 42 41 44 45 44 41 40 37 34 33 34 35 33 31 31 31 31 34 36 36
20 16 23 15 8 10 8 23 32 40 44 47 46 46 43 40 39 47 43 35 35 39 43 43 43 43 44 43 41 37 35 29 31 35 32 29 29 31 32 31 33 37 38 37
22 23 23 22 26 40 44 46 37 37 42 44 43 49 39 42 35 29 26 31 34 38 36 36 40 42 42 41 38 36 31 34 36 29 29 31 32 32 32 35 38 38 36 35
29 25 34 35 41 40 29 34 38 39 42 44 49 38 43 38 30 29 29 31 34 36 36 39 42 41 40 38 35 34 31 29 29 29 31 32 31 31 34 38 37 35 34 33
31 41 41 40 37 34 33 36 38 44 38 41 32 34 26 30 31 31 33 35 37 38 38 40 41 41 39 36 35 32 30 29 29 30 31 31 31 34 37 35 34 32 32 34
39 32 34 42 30 41 42 36 39 38 34 42 35 31 34 26 31 31 36 38 36 36 38 41 43 41 39 37 35 33 30 28 28 29 29 30 33 35 35 33 30 30 31 32

GFSCGP_700_spd_015.txt.gz
Wind_Speed
3 2 1 2 4 3 4 6 8 8 5 10 9 7 4 1 3 8 6 7 6 11 13 12 12 10 8 9 9 9 14 17 19 22 24 24 23 23 24 27 28 29 33 38
5 2 1 2 4 5 7 6 6 4 8 10 6 1 2 6 6 5 4 4 7 8 8 8 7 7 12 14 10 7 11 14 18 21 25 27 28 29 31 33 34 38 41 44
4 4 3 3 3 5 8 5 10 12 10 5 4 4 1 3 5 6 3 1 4 3 3 4 9 12 15 16 15 13 13 17 21 25 28 30 32 34 37 38 40 43 43 42
4 2 1 5 8 9 9 9 12 13 7 2 3 4 7 3 3 2 3 3 4 4 7 10 13 15 13 18 19 15 18 21 25 29 31 33 34 36 40 42 46 46 42 45
3 1 4 6 7 11 7 14 14 7 4 5 2 3 3 7 3 4 4 3 4 6 9 13 14 14 18 22 19 20 22 26 29 33 36 37 38 41 42 46 48 42 45 47
1 2 3 5 9 10 12 12 3 3 4 2 2 3 5 3 7 8 9 11 8 8 13 16 18 20 23 25 28 28 29 32 35 37 38 40 45 49 48 42 44 46 44 42
1 1 2 7 8 5 9 6 1 1 1 1 2 3 4 7 8 8 7 6 9 15 21 22 22 24 25 28 31 31 34 37 41 45 48 45 50 52 51 45 42 44 47 49
4 1 3 5 8 7 10 9 4 1 2 5 8 5 8 12 11 5 5 12 20 25 21 17 21 26 30 31 32 37 40 41 44 45 50 46 42 41 39 40 43 47 50 53
5 1 2 7 3 4 5 5 5 3 4 3 4 2 8 16 13 12 19 24 25 23 22 20 21 25 28 32 35 38 40 42 48 49 45 40 41 41 41 43 49 51 51 53
6 1 2 2 2 4 2 3 3 4 2 2 7 7 7 10 20 18 26 25 28 26 22 19 21 25 29 34 39 45 49 51 50 47 44 44 40 40 43 46 48 52 53 51
7 3 3 4 3 3 2 1 2 2 0 1 3 7 12 20 22 17 30 32 26 23 21 24 28 33 39 45 49 50 49 48 46 46 46 44 43 43 45 48 50 52 48 44
10 3 4 7 2 1 2 3 2 3 2 5 7 16 4 6 18 25 31 26 26 25 25 30 36 41 45 45 43 45 44 44 45 47 46 39 44 50 52 54 54 49 41 33
11 6 5 1 3 3 4 9 15 9 8 12 5 11 15 28 26 25 23 22 21 20 29 38 40 38 41 43 43 48 46 44 43 38 42 43 47 51 52 49 41 34 30 27
13 7 7 9 12 16 22 21 18 16 11 14 28 32 26 21 25 21 23 22 23 31 41 43 42 43 44 43 47 42 35 36 40 41 46 50 52 51 44 37 34 31 30 28
10 12 17 16 16 18 21 19 18 20 22 17 26 26 25 23 23 25 31 34 37 40 47 47 50 49 52 46 39 31 33 39 41 45 49 51 51 46 37 37 36 34 31 30
17 12 17 22 12 12 26 28 20 3 11 20 19 27 24 25 27 33 31 34 42 46 50 48 48 49 46 38 35 37 41 45 47 48 48 46 40 34 34 36 33 34 36 32
15 10 12 10 12 21 19 4 5 25 19 15 23 26 28 31 32 30 36 44 50 49 48 48 41 48 37 37 41 39 41 44 46 45 43 39 33 32 33 35 35 33 30 29
14 13 11 11 16 3 10 16 26 18 16 21 26 31 30 33 31 38 51 47 45 46 42 36 43 36 39 40 40 41 44 46 45 43 40 36 34 33 35 35 31 29 29 29
10 11 10 6 5 17 27 8 12 22 27 24 24 25 26 32 48 45 47 47 40 38 34 39 33 36 38 40 43 45 45 45 42 40 39 35 34 37 36 31 30 30 28 30
11 13 16 13 5 5 13 22 24 24 26 17 25 34 42 47 49 44 35 31 35 27 29 32 34 36 37 39 42 43 43 41 39 37 37 32 36 33 30 31 31 30 32 36
14 16 20 19 11 17 22 14 14 16 23 33 38 41 43 44 44 38 36 28 23 27 29 31 32 35 37 39 41 41 40 37 35 32 34 38 30 31 32 31 31 33 37 38
19 15 19 11 7 7 10 25 32 39 47 41 40 44 43 43 31 35 24 31 24 26 29 31 33 35 38 40 40 40 37 35 34 31 29 29 30 32 31 31 34 37 37 35
19 20 20 17 23 33 38 34 34 35 37 45 45 40 32 33 36 29 32 24 24 29 33 34 36 37 39 40 40 38 36 35 34 31 29 29 31 31 31 34 37 36 34 33
29 28 32 33 33 35 32 30 34 39 41 36 33 33 35 39 34 33 25 27 31 35 35 36 37 38 38 38 38 36 36 35 33 31 28 29 29 30 32 35 36 35 32 33
35 34 31 37 32 37 36 33 35 37 37 33 38 37 33 30 31 30 33 34 37 39 38 37 37 38 39 39 36 34 34 32 30 28 28 28 28 31 33 34 33 31 32 33
29 25 27 36 33 37 36 38 32 31 39 39 38 33 29 28 31 36 38 42 42 37 37 37 38 40 41 39 35 35 32 31 26 25 26 27 29 31 32 31 28 29 31 33

GFSCGP_700_spd_018.txt.gz
Wind_Speed
5 3 4 2 2 3 2 2 3 4 5 2 2 3 4 3 6 11 9 10 11 16 15 13 12 12 12 11 10 12 14 17 20 22 21 22 24 26 27 27 28 32 33 35
3 3 2 1 1 2 3 3 2 4 4 5 3 1 2 4 6 7 7 9 8 11 13 13 11 11 12 13 15 14 17 17 19 21 24 26 28 30 32 34 35 37 40 41
6 5 3 2 2 3 5 1 4 6 8 4 2 3 3 5 6 6 4 4 8 11 10 9 11 12 14 17 18 19 19 19 21 25 28 31 34 36 37 37 39 40 44 43
6 5 2 2 4 4 4 7 11 10 5 5 7 5 3 6 5 5 6 7 7 7 8 9 10 14 18 19 21 22 20 23 27 30 33 36 39 41 43 45 46 45 47 51
4 3 1 2 5 8 4 11 11 6 5 4 3 6 3 5 4 4 7 9 9 9 8 11 15 17 20 22 22 23 25 27 30 33 36 39 44 46 48 51 53 52 51 47
3 1 1 4 8 8 8 10 5 1 3 5 3 3 6 5 3 3 3 11 10 10 12 15 19 22 24 25 26 26 28 30 31 36 40 43 45 49 54 53 50 49 47 40
2 1 2 4 4 5 8 4 2 2 4 1 4 4 2 6 8 7 11 11 11 13 17 22 21 22 25 27 28 28 29 32 37 40 46 52 49 54 54 51 49 47 41 43
2 1 3 6 4 3 7 6 3 3 2 3 4 4 6 11 12 13 13 13 15 21 24 23 22 23 25 27 28 31 35 40 45 46 50 49 48 47 47 47 47 46 46 43
3 1 2 6 4 5 4 3 3 1 4 3 1 2 6 13 13 13 14 18 24 24 26 26 24 24 25 27 32 35 39 42 45 45 46 45 44 43 44 46 45 43 46 53
4 2 2 4 5 4 1 1 2 3 3 3 3 7 10 8 13 14 18 26 26 27 24 21 20 22 25 32 37 39 39 42 46 46 46 44 44 47 46 42 46 51 52 53
5 1 3 3 2 3 3 1 1 1 1 3 4 7 8 5 10 12 19 26 26 26 23 21 21 28 34 38 39 43 44 44 43 40 39 39 40 41 44 47 51 52 50 43
5 1 2 4 6 5 5 4 2 2 3 5 5 12 8 4 14 23 19 27 27 23 18 22 30 36 42 42 43 42 40 39 37 34 33 36 41 46 50 51 48 41 35 31
7 3 3 2 3 7 5 5 10 12 8 12 7 7 10 19 20 19 24 26 25 29 29 32 39 43 44 41 40 39 35 34 32 33 38 43 46 49 49 45 38 33 32 26
6 5 5 7 10 10 11 12 12 11 9 12 21 23 20 17 19 20 24 27 25 29 30 40 45 43 41 39 39 37 33 34 38 40 43 46 48 47 44 33 29 30 25 26
6 8 12 12 13 17 17 16 15 19 19 16 18 20 18 20 22 25 29 26 31 34 43 47 43 41 37 38 36 34 34 37 40 44 46 48 47 43 38 32 31 31 33 32
10 9 15 19 17 14 19 23 20 11 13 18 20 20 16 26 30 27 23 26 37 48 45 46 42 35 36 36 34 35 38 40 43 45 46 46 42 38 33 31 31 36 34 31
11 9 10 9 13 24 13 4 5 15 11 13 12 16 25 24 21 24 28 41 45 44 41 37 31 30 29 33 34 36 39 41 42 43 43 41 39 36 33 32 36 32 29 28
9 11 9 8 14 4 3 15 21 14 10 14 20 18 23 26 26 30 39 42 40 37 35 35 31 30 31 31 33 34 37 39 40 42 41 40 37 36 33 33 30 30 30 29
8 9 6 3 5 21 12 4 9 14 21 17 19 21 30 36 37 30 42 44 38 39 35 27 30 26 28 31 33 36 38 41 42 42 39 37 34 35 33 30 31 30 30 31
6 6 8 8 5 5 4 18 20 15 22 13 24 33 43 36 37 34 35 29 29 25 32 29 25 29 32 34 37 40 41 41 41 39 36 34 32 31 32 32 32 32 33 36
9 11 13 10 10 12 15 11 14 11 15 34 39 43 40 42 39 33 30 39 30 26 24 27 31 33 36 38 40 41 43 43 42 37 35 33 31 30 31 31 31 33 35 36
11 7 8 6 8 8 5 22 19 24 35 39 39 38 41 30 35 38 33 28 24 26 28 33 36 38 38 40 42 42 43 42 39 37 34 32 30 29 30 31 32 34 35 34
16 12 11 12 18 21 28 29 29 34 38 35 37 37 33 37 29 26 27 25 28 32 36 41 42 41 40 42 43 43 43 40 35 35 34 29 29 29 29 30 32 34 33 32
22 23 25 31 31 20 21 27 34 37 40 33 35 34 33 26 24 28 28 32 35 39 44 48 43 42 42 41 43 43 42 34 36 35 31 28 27 27 27 30 32 31 30 32
25 25 33 31 29 24 19 31 34 36 36 30 33 29 26 28 31 33 35 38 42 45 44 41 41 42 42 44 44 42 39 35 32 30 24 24 25 26 26 28 27 26 29 32
30 25 28 27 25 28 29 36 33 30 37 31 28 25 27 31 35 36 40 44 44 41 39 38 39 42 44 44 43 38 34 31 29 21 21 23 24 24 25 24 23 26 26 32

GFSCGP_700_spd_024.txt.gz
Wind_Speed
3 6 1 6 3 5 6 4 3 5 2 5 9 10 6 6 3 2 5 10 11 15 20 24 25 29 27 19 20 22 22 19 18 21 24 25 29 29 31 33 37 40 38 43
4 4 4 2 5 4 3 3 4 2 5 4 4 8 6 1 4 5 6 11 15 21 25 26 24 26 21 18 17 15 18 19 20 25 24 25 28 31 34 35 40 48 46 49
1 5 3 2 2 3 4 3 3 4 9 12 11 10 9 6 8 14 17 14 9 13 20 28 29 21 14 13 15 18 22 24 26 28 30 29 31 34 36 41 44 47 45 47
3 1 3 1 1 4 6 1 6 9 10 13 16 6 13 13 10 10 11 10 7 6 7 12 9 11 14 16 19 22 27 31 32 31 32 33 34 38 40 43 45 46 47 48
4 2 2 2 3 4 5 11 10 8 10 11 15 11 21 17 12 11 10 8 5 9 7 8 13 17 18 20 21 26 29 32 35 31 30 31 34 38 41 43 46 46 47 49
4 2 1 2 5 6 5 8 10 9 9 8 14 6 10 13 13 10 7 6 5 4 7 12 16 19 26 29 32 30 27 26 29 34 32 34 37 41 43 44 46 46 46 46
4 2 4 4 6 2 7 8 7 3 6 2 1 3 9 13 12 12 9 3 3 4 6 5 12 18 22 25 30 32 30 28 30 35 41 45 47 44 43 42 41 42 41 43
9 7 1 5 3 3 4 4 3 4 4 8 5 4 12 12 11 9 4 2 2 3 9 9 13 14 17 23 29 32 31 32 37 41 43 40 42 42 41 41 40 40 44 47
2 5 1 3 3 5 5 4 3 4 4 4 7 6 12 11 9 7 1 2 4 8 10 8 11 17 25 28 30 33 36 39 40 42 42 40 40 38 41 41 41 44 45 46
2 4 2 4 6 6 8 3 4 2 2 3 9 8 9 10 6 4 3 7 8 7 8 10 15 19 27 30 34 37 42 42 45 43 41 38 39 40 41 42 42 44 45 48
5 3 2 4 3 5 4 3 4 5 3 2 3 4 5 2 3 7 6 11 13 11 19 12 20 30 32 35 36 41 40 43 44 39 38 37 39 41 43 42 43 45 46 47
3 4 2 3 3 3 3 3 4 2 5 3 4 12 7 4 4 7 10 11 9 17 19 21 28 32 36 36 43 39 40 43 40 38 35 39 40 42 41 41 43 46 45 43
6 2 2 7 0 4 5 3 5 5 8 12 8 8 7 13 13 10 8 10 11 14 15 29 32 30 35 48 39 37 38 39 41 37 39 37 40 43 44 45 45 45 42 39
3 2 1 1 5 9 10 11 12 14 15 15 18 19 18 18 16 9 12 11 13 20 25 32 37 38 47 41 39 36 34 38 40 40 38 41 44 46 47 42 43 42 40 37
3 2 3 6 9 9 11 14 14 16 18 20 21 21 17 17 10 12 14 21 25 30 37 45 38 44 39 36 34 31 34 34 41 40 43 43 45 47 42 46 42 39 36 36
4 4 9 12 3 9 19 20 14 13 16 16 13 15 13 15 15 20 26 27 36 42 33 39 40 40 39 27 27 30 31 39 41 41 43 45 38 40 40 47 42 37 37 37
6 5 8 5 12 21 4 2 5 8 8 10 12 14 13 15 17 21 29 35 39 36 38 35 37 29 26 27 26 29 33 34 38 35 43 35 39 42 46 47 43 37 37 37
9 8 7 8 10 2 1 16 14 14 8 10 11 12 11 10 18 24 40 34 35 35 37 35 26 28 32 32 33 30 34 38 44 46 41 46 46 37 42 44 43 40 36 37
7 7 4 4 4 15 6 6 6 10 17 10 13 13 18 24 27 34 35 37 33 35 31 29 30 30 30 34 28 34 39 43 37 39 44 45 38 31 38 48 46 38 34 32
7 8 8 8 3 4 2 8 14 17 15 13 16 19 25 36 39 42 38 34 35 33 31 26 27 30 30 31 39 45 47 35 32 42 40 41 38 33 40 46 39 28 32 31
6 9 13 9 7 9 10 11 12 6 8 20 24 30 34 35 39 36 36 33 27 23 22 24 29 32 36 41 45 43 40 35 36 41 46 49 47 41 42 41 34 32 29 31
6 5 6 6 7 9 1 8 12 13 23 28 33 35 31 35 33 31 28 26 20 22 26 29 34 37 38 37 39 41 38 42 47 45 40 40 36 34 30 32 29 25 31 30
9 12 9 11 9 8 16 13 23 27 30 33 32 37 34 31 27 26 24 20 23 28 39 44 38 40 35 35 35 34 35 52 47 45 41 33 27 26 31 17 21 30 29 27
16 14 20 21 24 18 24 32 30 35 34 32 33 33 29 25 25 23 24 28 37 43 41 35 41 33 32 32 35 41 51 47 44 42 35 29 28 26 21 18 22 26 25 25
19 19 22 24 24 23 29 31 28 35 30 38 28 24 24 23 22 27 32 37 40 38 35 38 32 35 39 41 39 44 44 43 41 36 31 28 22 15 17 20 21 21 23 25
27 30 23 25 24 27 32 30 35 31 35 28 22 22 22 24 27 35 38 38 38 40 37 39 37 41 44 45 44 42 40 39 36 32 29 20 17 18 18 17 18 20 22 24

GFSCGP_700_spd_027.txt.gz
Wind_Speed
3 3 6 10 6 5 4 8 12 16 11 0 5 3 15 9 6 8 12 11 22 25 23 26 28 25 26 29 26 24 23 26 23 23 21 24 29 28 27 28 29 32 36 39
4 5 5 1 3 4 5 4 8 7 4 8 4 4 9 8 10 10 11 13 13 21 25 26 26 26 28 27 22 21 19 17 22 25 28 29 27 26 27 31 36 40 45 46
6 5 2 7 4 6 5 4 3 4 3 7 8 6 11 9 13 15 14 13 17 20 22 22 23 23 20 15 15 17 19 20 24 29 31 31 31 31 30 31 34 37 42 45
4 4 4 5 2 1 3 4 7 8 7 6 6 1 16 17 19 19 17 12 15 22 26 25 19 14 12 14 17 21 23 26 28 28 29 31 32 32 32 34 36 40 43 44
5 5 5 4 4 5 3 7 8 7 8 9 7 8 22 20 18 17 18 15 16 17 18 15 13 14 15 17 19 22 27 31 33 33 32 31 32 34 37 43 44 43 42 42
6 4 2 4 1 9 6 7 9 10 8 5 9 9 17 18 20 18 16 15 13 12 12 11 14 17 19 22 26 28 27 27 27 31 36 40 42 42 43 43 42 41 40 40
10 3 7 4 3 5 6 7 4 2 1 3 8 10 3 13 18 19 18 16 11 8 8 12 13 17 22 26 28 31 30 31 34 37 39 38 41 44 44 44 43 43 43 42
12 4 1 5 4 1 7 8 4 0 1 5 6 5 11 14 16 13 10 7 8 7 10 12 16 19 21 23 27 32 35 36 41 44 45 42 43 44 43 42 41 47 47 45
8 5 3 3 6 5 5 6 5 1 4 2 3 15 7 6 1 5 4 4 2 7 9 13 12 21 26 30 32 36 37 41 44 48 48 45 44 44 42 40 44 43 43 44
8 7 2 8 7 9 11 6 4 3 1 3 6 6 2 7 6 4 6 5 10 11 10 15 21 26 27 29 35 36 39 43 49 44 44 43 43 44 42 44 43 43 42 42
13 6 6 4 3 2 4 4 1 2 1 4 1 3 7 6 3 4 10 10 12 15 15 22 25 25 29 36 41 39 45 47 44 43 42 42 42 42 43 41 42 44 44 41
8 9 8 5 4 4 3 2 1 2 2 2 1 7 17 10 11 7 10 12 14 15 20 24 25 27 42 42 40 38 44 43 44 46 44 41 43 41 44 46 47 47 43 43
11 7 7 3 1 2 4 1 6 8 10 9 3 5 4 12 14 23 19 10 12 15 21 28 31 36 41 43 40 45 42 42 41 43 41 43 48 47 46 53 41 42 43 44
8 9 5 6 2 5 7 8 8 11 8 13 16 17 17 14 12 4 10 15 19 23 27 27 34 45 43 38 42 44 40 42 40 40 44 48 43 45 52 57 40 35 42 43
7 9 8 8 7 9 9 11 12 14 15 15 17 9 4 14 16 15 18 19 20 23 30 41 46 41 39 41 40 38 36 37 38 42 41 45 45 54 53 47 49 43 37 41
8 6 6 5 6 8 14 13 3 2 4 9 7 8 15 14 19 18 20 23 26 31 46 44 39 39 40 38 37 35 32 32 32 37 44 46 48 49 51 47 47 30 33 39
6 4 4 3 7 12 3 4 5 8 9 9 10 10 18 21 26 26 27 27 31 42 44 39 38 36 31 32 34 36 38 42 39 41 45 47 52 46 47 47 38 34 39 44
8 7 5 5 7 1 6 9 13 14 9 12 11 17 18 22 25 25 26 32 39 40 37 35 31 25 26 30 36 42 44 44 46 49 55 49 46 46 40 37 34 41 30 39
12 9 4 4 4 13 8 6 11 8 11 16 19 22 22 24 24 28 35 38 37 34 30 24 21 28 32 37 42 44 47 50 52 47 45 45 46 47 50 44 45 36 39 45
8 7 8 7 4 6 9 5 10 14 15 18 17 19 23 26 32 35 37 36 35 32 26 27 32 33 37 41 44 46 45 43 44 45 42 50 46 43 42 40 35 32 35 35
11 10 14 13 8 9 11 17 17 11 14 14 18 27 29 34 34 35 35 31 28 26 29 34 36 39 39 38 40 39 41 42 43 44 47 47 45 42 35 30 23 25 26 26
9 6 8 10 8 9 8 12 17 19 21 22 27 32 34 31 33 34 27 26 27 31 34 37 40 41 42 41 41 40 44 45 47 46 45 43 40 33 26 23 28 21 21 28
12 14 10 12 10 21 23 21 25 26 24 28 29 33 30 34 32 25 25 26 27 33 37 40 41 41 40 41 40 42 43 43 40 40 39 39 34 29 26 21 19 22 24 23
14 17 19 17 19 21 24 30 32 31 35 29 32 31 33 28 23 24 25 28 33 36 38 39 39 40 41 40 39 39 41 40 39 38 36 33 30 26 17 14 18 20 20 22
21 23 26 28 20 24 28 29 33 35 32 34 36 33 25 22 23 25 28 32 34 36 37 37 38 40 40 40 39 41 41 40 38 34 33 29 25 17 17 16 16 17 19 21
25 27 30 37 28 26 28 30 33 33 32 35 29 22 19 23 25 28 31 33 35 36 36 36 37 39 40 39 39 40 40 37 34 32 29 25 17 16 15 14 14 17 18 19

GFSCGP_700_spd_030.txt.gz
Wind_Speed
10 2 4 5 5 3 1 3 17 19 13 8 5 13 18 19 18 17 18 19 20 21 20 26 27 20 22 21 21 20 23 24 21 15 14 17 23 26 28 31 32 34 35 38
4 7 9 7 8 8 8 16 17 14 11 5 7 18 16 17 18 15 15 18 14 25 23 27 28 23 22 23 26 26 19 16 16 16 19 21 23 24 25 28 31 33 36 38
7 8 9 9 5 8 8 14 16 10 5 4 6 14 14 14 18 17 16 15 16 17 20 23 22 25 27 24 14 15 17 19 20 23 27 28 28 28 28 31 33 34 36 39
7 8 8 8 4 4 5 4 1 4 6 2 5 9 18 20 19 17 18 18 17 16 16 17 19 22 20 19 19 18 20 23 26 26 24 23 23 25 30 32 35 38 40 40
9 8 8 5 2 3 3 4 3 2 3 5 4 5 19 20 16 16 16 18 19 20 19 22 19 16 18 21 23 24 25 27 27 27 28 32 36 37 37 38 40 40 40 42
6 1 4 3 2 6 2 1 3 5 5 2 4 7 27 26 24 15 16 17 17 15 13 10 8 12 18 19 21 22 26 29 30 32 35 38 41 42 42 42 43 44 43 43
7 4 5 4 8 6 4 3 3 3 2 4 3 2 6 21 21 16 19 20 15 14 11 11 15 21 16 23 25 26 30 35 38 39 41 44 45 45 44 46 47 46 45 44
6 3 2 5 5 4 5 6 3 3 2 4 3 4 1 13 21 19 17 7 7 12 17 17 19 21 22 27 28 30 33 41 42 41 44 44 42 42 43 46 46 44 45 47
7 5 4 6 6 5 4 5 5 3 1 0 4 10 8 10 13 10 13 18 16 10 14 15 15 15 19 24 27 29 35 45 45 45 46 43 44 44 44 44 44 43 41 45
10 8 7 9 8 9 10 7 2 2 2 0 2 9 7 16 9 9 7 10 6 13 14 15 16 19 25 30 31 37 41 46 47 45 47 44 42 42 43 44 42 44 44 53
11 6 10 6 3 3 5 5 3 2 2 4 2 1 3 12 11 11 10 11 9 11 14 19 22 26 28 30 33 44 47 46 44 47 43 41 42 40 46 45 46 48 46 53
12 9 10 7 6 3 3 5 2 2 3 2 1 3 6 12 17 13 5 6 11 20 25 25 25 28 32 36 44 45 41 42 46 44 43 42 43 43 48 47 49 48 47 41
14 10 10 5 6 6 4 5 2 5 8 9 4 4 12 7 14 17 18 20 22 22 22 24 27 31 36 42 43 41 43 44 41 40 43 43 43 46 47 53 54 49 54 51
13 14 8 11 5 7 7 8 9 9 8 12 18 15 15 21 19 20 20 19 20 22 24 27 28 36 44 44 43 43 40 38 41 42 43 47 47 47 48 44 50 52 44 48
11 11 10 8 9 11 12 11 11 14 15 12 15 15 16 20 19 18 18 21 23 25 27 30 37 44 44 44 43 40 39 41 41 42 44 47 46 48 51 47 46 46 46 39
13 9 12 11 13 13 11 12 13 6 7 9 8 11 14 18 17 17 19 22 24 29 32 36 42 42 42 41 39 40 41 41 41 43 44 46 52 50 41 45 46 46 40 30
11 10 8 6 10 10 13 12 12 9 12 14 17 19 17 17 17 17 21 27 31 32 37 42 43 43 38 36 38 38 37 43 45 49 51 49 38 38 41 50 46 43 39 39
10 9 7 5 6 1 7 10 11 14 19 20 20 19 19 18 22 26 28 30 33 39 42 42 42 35 35 35 34 38 44 48 47 46 42 38 40 41 45 47 44 39 35 29
15 14 7 5 7 10 12 16 16 13 15 18 19 22 22 25 27 27 30 32 37 38 39 35 32 32 33 35 39 43 44 43 41 39 38 41 42 45 43 41 37 32 27 23
17 15 14 9 4 6 9 11 14 16 22 19 16 18 17 19 26 31 36 39 35 34 33 30 31 33 35 38 40 40 40 40 40 41 42 43 42 42 40 36 29 18 23 25
14 15 18 18 10 8 14 13 14 10 14 11 15 16 18 25 27 30 30 33 33 29 29 30 32 34 37 39 41 40 39 36 37 39 39 39 40 38 36 32 28 24 22 18
11 10 12 12 10 10 10 8 16 19 21 21 24 23 28 30 31 31 33 29 27 26 29 31 33 36 37 38 39 39 39 38 37 36 36 38 38 36 34 30 23 15 17 22
16 21 16 15 10 17 22 23 23 22 22 29 30 30 30 31 32 31 28 25 24 28 30 32 34 35 35 37 39 40 38 37 37 37 37 37 35 33 29 23 16 16 18 19
20 20 23 26 27 26 25 25 26 25 29 28 29 35 29 33 31 26 23 23 26 29 31 33 34 34 35 36 38 38 37 39 39 36 34 34 32 28 23 17 17 16 17 19
20 21 27 30 31 30 29 28 30 28 30 30 35 31 34 31 26 22 22 26 28 30 32 33 34 33 34 36 38 38 37 37 35 34 34 30 28 25 18 18 16 15 15 18
25 27 30 34 30 32 34 29 27 27 29 34 31 37 28 25 21 22 26 29 30 32 33 34 32 32 33 35 37 39 38 36 35 33 29 26 25 20 18 16 16 15 16 17

GFSCGP_700_spd_033.txt.gz
Wind_Speed
10 6 6 4 5 5 7 11 14 12 12 15 9 12 11 21 18 18 18 19 22 23 23 23 23 21 19 17 18 19 21 21 23 18 16 20 22 24 25 28 30 31 34 35
7 7 5 6 3 2 3 4 14 15 13 9 9 16 18 24 21 18 19 20 20 22 24 23 21 18 18 18 20 22 21 15 15 17 18 21 23 22 22 25 28 32 35 38
6 6 7 6 5 4 11 16 19 16 8 3 11 12 12 16 19 18 17 16 15 15 17 18 19 17 17 19 19 17 15 14 15 17 19 19 19 22 24 28 32 35 37 39
7 9 10 10 5 3 12 12 10 9 6 6 14 5 11 15 17 16 16 14 12 12 11 15 7 9 10 12 11 13 16 18 19 17 15 15 19 24 30 32 34 35 37 40
8 9 8 6 6 5 5 7 5 5 4 6 5 5 14 19 20 19 18 15 13 8 9 6 6 6 9 13 14 16 19 21 22 26 30 35 36 37 40 39 39 40 42 44
11 8 7 6 6 5 6 7 7 6 4 1 2 7 17 27 26 24 20 16 12 7 15 7 7 7 14 13 12 17 24 24 29 35 41 41 40 41 41 40 41 43 46 48
10 5 4 8 8 5 2 7 3 1 0 4 0 3 3 26 23 19 17 14 10 12 6 7 14 15 22 22 22 28 31 29 37 42 47 45 42 40 42 43 44 45 46 46
6 4 4 6 10 5 2 2 3 4 3 3 1 1 2 22 13 17 12 11 11 11 9 17 23 22 25 28 24 30 30 31 37 44 48 44 43 45 46 45 44 43 44 45
7 4 4 5 8 8 4 2 3 4 2 1 1 3 3 11 18 19 17 12 14 23 29 27 20 25 25 23 23 30 32 36 42 50 47 46 45 44 42 41 40 42 43 45
9 7 10 8 7 4 6 6 1 2 2 1 4 6 6 18 21 21 21 19 22 19 16 20 22 22 22 23 29 32 35 42 46 44 44 44 41 40 41 43 45 48 48 50
13 8 10 10 5 6 5 3 2 2 2 4 1 5 11 13 19 17 15 13 14 18 21 20 23 25 28 29 31 35 41 42 44 44 42 40 42 44 43 44 48 46 47 48
13 8 13 8 7 6 5 5 4 1 2 4 2 6 9 9 18 18 17 16 16 18 21 25 26 27 27 30 33 38 46 43 42 41 40 42 44 47 47 48 51 50 53 51
13 8 10 5 7 8 7 9 7 5 6 8 3 5 9 14 18 18 19 23 23 26 27 27 28 28 31 32 37 45 43 41 40 41 43 42 43 46 49 49 52 56 52 48
14 10 10 11 4 8 10 11 11 11 9 14 20 16 15 18 20 22 23 23 23 25 26 27 29 30 33 39 43 43 41 41 42 42 43 44 46 47 48 52 53 48 46 45
12 9 16 10 9 9 11 13 15 17 17 15 17 18 18 23 24 25 25 21 23 25 27 29 32 36 40 42 42 43 42 42 42 43 44 47 49 50 48 45 45 45 45 46
13 8 13 12 13 14 17 18 19 20 23 24 23 24 20 21 23 24 24 24 26 27 29 33 35 37 40 40 43 40 41 41 43 45 47 46 46 45 44 45 45 45 43 41
13 12 9 7 14 16 16 21 24 19 18 16 20 18 18 18 21 24 25 25 25 28 31 34 38 40 41 39 38 40 41 42 44 44 45 45 45 44 43 41 41 40 37 33
8 10 10 6 7 1 14 14 13 19 19 19 21 23 23 22 21 23 24 26 29 33 36 39 40 38 36 35 38 39 40 42 43 44 45 45 43 42 38 39 37 34 29 24
14 14 9 6 11 13 11 16 17 19 20 18 20 20 20 22 23 23 23 28 32 35 37 35 35 33 34 36 38 38 39 41 42 44 43 40 40 39 38 38 35 33 29 23
18 18 17 10 5 6 7 11 13 16 21 16 11 13 17 21 25 22 28 31 33 34 36 32 31 32 35 36 37 38 39 40 41 39 37 38 39 39 38 36 35 31 27 23
14 15 20 22 13 11 16 17 16 12 11 14 16 16 18 23 25 27 34 32 34 33 27 29 30 34 36 37 38 38 38 38 38 36 38 40 40 39 37 35 32 29 21 20
15 9 13 15 11 13 17 18 20 12 20 21 19 20 23 22 27 33 30 30 28 26 27 29 32 34 36 37 37 38 37 38 38 38 39 39 38 36 35 32 29 22 18 19
18 21 17 16 10 15 11 12 23 25 24 24 22 24 23 29 30 35 28 23 22 24 27 31 33 34 36 37 37 36 36 37 38 39 39 39 38 35 31 28 24 21 20 19
19 20 25 27 27 26 27 29 30 31 27 28 26 28 31 31 31 27 22 20 22 26 30 31 33 34 35 36 36 36 36 37 39 38 37 38 36 30 28 25 21 19 18 18
20 23 26 29 28 31 30 30 30 28 32 30 27 29 29 34 21 21 19 21 24 28 31 33 34 34 36 36 35 37 37 38 39 39 37 37 32 28 26 23 21 19 18 18
25 27 29 32 27 30 31 30 31 33 30 30 29 28 33 27 19 18 19 22 27 31 33 34 34 35 36 36 36 36 37 38 39 38 36 35 29 27 24 22 21 19 18 18

GFSCGP_700_spd_036.txt.gz
Wind_Speed
9 8 9 10 11 6 5 6 8 10 13 12 14 11 12 13 21 18 16 17 18 17 18 20 21 22 21 21 19 16 21 24 13 8 14 16 18 19 21 24 27 29 31 33
10 11 8 9 5 4 3 6 5 9 12 13 14 13 14 14 22 21 20 20 22 22 23 23 21 16 11 12 13 17 18 20 12 10 13 16 20 21 22 24 26 30 34 37
8 7 5 2 2 2 4 9 13 11 11 8 9 10 11 17 19 19 21 22 21 16 13 9 8 9 11 11 11 10 11 12 15 16 15 17 20 21 23 26 30 33 35 36
7 5 4 4 4 3 8 9 6 6 5 3 9 5 10 15 20 19 18 15 12 8 6 5 7 5 5 5 7 9 11 13 14 14 19 26 32 34 35 36 36 39 42 45
8 6 5 5 5 5 6 8 8 5 5 5 10 5 11 16 18 19 17 13 10 8 6 5 5 5 1 7 6 7 15 20 21 23 29 35 39 42 41 40 41 43 44 44
8 8 6 6 7 7 7 8 7 6 4 2 7 11 10 19 22 22 19 14 11 11 9 13 12 11 6 8 15 25 23 24 26 29 35 38 42 42 42 42 42 42 43 44
9 6 7 9 9 5 4 7 0 1 0 4 5 7 12 12 21 22 19 16 15 14 11 5 10 15 20 29 21 22 23 26 29 31 36 41 43 41 42 43 43 43 44 44
9 4 6 7 10 5 5 7 4 4 3 3 3 5 5 8 22 17 18 15 17 14 10 13 22 27 20 20 20 23 24 29 30 34 40 42 42 42 43 43 43 45 47 47
8 6 7 7 13 8 5 4 4 2 0 2 3 6 8 7 20 18 23 23 19 14 18 25 27 21 21 24 27 27 28 31 33 37 45 43 43 43 43 44 46 46 47 49
7 6 8 6 6 8 8 7 2 2 2 3 4 7 11 9 16 23 24 22 17 19 19 20 17 22 23 29 28 29 32 34 35 42 43 42 41 42 44 45 46 49 51 52
12 10 9 8 6 7 8 5 3 3 2 4 1 6 8 10 11 12 18 18 19 19 18 21 22 23 28 29 30 32 32 34 39 39 40 39 41 43 44 47 51 53 55 54
14 9 9 13 10 10 9 7 7 3 4 5 2 8 8 9 11 13 19 20 21 22 23 23 24 27 30 31 31 32 37 40 38 39 39 41 43 44 46 49 52 55 53 51
14 7 8 5 9 11 11 10 10 8 6 9 3 5 6 8 12 19 26 24 25 24 23 24 26 29 31 32 32 37 39 35 37 39 40 42 43 46 49 51 51 49 49 48
13 12 11 14 5 8 12 15 14 13 8 8 19 22 21 19 15 18 22 23 24 24 25 27 29 31 31 34 36 35 37 37 38 39 41 43 45 47 48 48 48 46 44 42
12 11 15 14 11 10 11 13 15 18 19 18 23 23 18 17 17 20 22 25 27 27 27 28 29 31 36 37 35 36 36 38 40 42 43 45 46 47 47 46 44 42 39 38
13 9 12 14 15 14 17 18 20 23 25 26 25 26 20 18 19 22 25 27 28 27 28 28 30 36 38 35 34 35 37 39 41 43 45 45 45 45 45 44 42 37 37 34
12 12 10 8 14 17 19 24 25 27 28 27 25 19 17 17 17 18 20 23 26 26 27 29 34 35 35 34 34 35 38 41 43 44 44 44 45 45 43 42 41 39 36 33
8 11 11 6 7 2 16 19 17 19 20 25 24 21 20 20 20 21 22 24 25 25 27 32 34 35 35 33 33 36 39 40 41 42 43 44 44 43 41 42 41 38 35 32
11 11 8 6 9 17 18 19 19 19 21 20 22 21 20 20 19 21 22 24 25 25 30 34 34 33 31 32 34 37 39 40 41 42 43 42 42 41 40 40 39 36 33 31
15 16 16 11 5 6 10 12 11 18 27 20 16 12 17 18 21 18 19 24 27 30 35 30 30 29 31 33 35 37 39 40 41 41 40 40 40 40 39 40 37 34 31 29
12 13 17 20 13 10 16 18 18 12 14 10 13 20 20 22 21 23 21 27 32 37 32 27 27 29 31 34 37 38 39 40 40 40 39 40 40 39 39 39 35 30 28 23
14 9 11 10 9 11 12 15 16 15 14 16 26 25 23 21 23 23 24 31 35 27 25 24 26 29 33 36 38 39 39 40 39 39 39 40 40 39 38 37 32 28 25 22
15 19 14 13 9 16 22 24 20 20 26 28 30 27 25 25 26 27 36 31 33 25 23 23 26 31 34 37 38 38 39 39 40 39 39 40 39 38 37 35 30 27 23 22
18 18 23 24 24 24 24 25 26 29 29 31 29 27 29 25 29 32 34 40 25 21 20 24 29 33 35 36 37 38 39 40 40 40 39 39 39 38 35 32 29 26 22 20
17 22 26 28 27 27 25 26 27 28 29 28 28 31 27 26 30 32 36 21 17 16 21 28 32 34 35 35 36 38 39 39 38 38 38 37 37 36 34 31 29 25 22 20
23 24 26 28 23 26 26 27 27 29 29 29 29 27 26 27 36 28 22 16 13 19 27 31 34 34 35 36 37 37 37 36 36 36 36 36 35 34 32 29 26 24 22 20

GFSCGP_700_spd_039.txt.gz
Wind_Speed
8 7 11 14 13 5 7 7 7 10 11 14 11 9 8 9 10 17 16 15 14 13 15 16 18 19 22 24 24 21 11 13 14 8 9 9 11 13 18 21 23 25 27 31
9 10 10 9 8 5 5 5 5 7 13 14 12 12 10 9 11 19 21 19 17 17 18 19 19 13 11 12 11 10 11 9 9 12 9 7 9 12 16 20 24 27 30 32
12 11 11 8 7 3 2 3 6 6 10 11 10 11 11 13 14 19 23 21 20 20 18 13 8 7 8 9 5 3 5 9 11 6 5 12 18 23 27 28 27 28 31 34
11 11 9 6 4 2 4 5 5 7 8 5 8 5 12 16 18 20 22 20 19 13 8 8 6 6 7 5 3 4 5 9 10 11 16 22 26 30 34 35 36 37 37 38
10 10 7 6 2 1 3 5 4 6 7 6 9 6 15 19 21 22 23 19 15 11 10 9 5 5 5 5 4 6 13 14 15 20 24 24 29 33 37 38 38 38 38 39
12 10 7 4 2 3 3 6 5 5 4 3 9 11 10 17 19 23 22 19 15 14 14 10 6 9 6 4 14 18 22 26 23 22 25 27 32 37 39 38 38 38 40 41
10 8 6 5 6 5 4 5 0 1 0 4 7 8 17 9 11 15 19 19 17 19 16 10 7 8 12 21 26 11 14 20 22 25 28 31 35 39 38 37 38 40 42 44
9 4 6 6 9 5 6 7 4 4 3 2 6 6 6 8 13 14 15 17 20 19 15 10 11 17 18 17 16 16 20 24 25 28 31 34 39 39 38 39 41 44 46 47
9 5 8 6 9 8 6 5 7 3 2 2 5 8 12 11 9 14 20 22 20 17 13 12 16 18 14 18 19 21 24 26 29 31 35 39 39 38 41 43 44 46 47 49
7 6 9 7 8 11 9 5 3 4 3 3 4 8 10 4 5 12 19 22 22 19 14 15 16 17 20 21 22 23 26 28 31 35 40 40 38 41 41 42 44 47 49 50
11 8 8 9 8 8 10 11 5 4 3 3 1 5 5 3 5 7 11 17 20 17 16 17 18 21 22 23 25 27 30 35 39 40 37 36 39 39 42 43 45 46 48 49
14 10 9 14 10 10 10 10 9 4 4 5 2 7 2 3 5 11 13 16 20 20 21 21 21 23 24 28 29 33 37 40 41 33 34 37 39 41 42 42 44 46 47 47
15 10 8 4 10 14 15 16 14 13 9 9 4 5 4 10 9 9 16 19 23 24 23 24 25 26 29 33 34 34 39 40 33 34 35 38 39 40 41 43 44 45 45 43
13 16 13 15 7 8 17 19 17 16 10 12 20 21 18 16 15 12 15 20 23 26 26 27 27 30 33 33 33 37 38 32 32 34 36 37 38 40 42 43 44 44 43 43
15 15 18 17 14 12 12 13 16 20 22 20 24 24 20 19 19 16 13 18 22 28 29 28 29 31 29 31 36 37 33 32 34 34 36 39 40 41 42 43 42 43 42 42
17 11 13 16 17 17 19 18 19 21 24 28 29 30 20 15 15 15 14 17 22 26 29 29 27 27 30 33 33 33 34 32 34 36 39 40 41 41 42 42 43 43 43 41
15 14 11 8 14 16 18 25 25 26 27 28 31 25 21 19 17 15 14 15 18 24 26 25 25 27 29 31 33 31 30 32 35 37 39 40 41 42 42 43 43 42 42 41
10 11 10 6 5 2 15 18 17 19 20 23 24 20 22 20 19 18 17 17 18 23 25 25 27 28 31 31 30 30 31 33 36 38 39 40 42 42 42 42 41 41 41 39
10 10 6 5 8 16 18 18 22 23 23 20 20 18 18 18 18 18 16 15 18 22 25 27 30 32 35 29 28 29 32 34 37 39 39 41 43 42 41 40 40 39 39 34
15 14 13 10 5 5 5 9 16 18 20 19 15 12 9 16 21 17 18 18 18 21 26 31 34 26 27 25 26 30 33 36 37 39 40 41 42 41 39 39 39 38 35 30
8 10 15 16 11 9 14 15 14 8 11 11 11 13 19 27 25 22 21 22 22 22 29 29 32 30 24 22 27 31 34 37 38 39 41 41 40 39 38 38 37 36 32 28
10 6 8 8 7 7 4 6 9 15 18 17 16 23 29 27 23 21 21 22 25 27 34 27 25 23 19 24 28 33 37 38 39 40 40 40 39 38 36 36 35 33 29 27
13 14 12 11 8 14 21 22 19 18 18 20 26 28 29 26 24 22 24 26 31 32 36 32 20 15 22 27 32 36 37 38 39 40 39 38 36 36 36 34 34 32 28 26
15 16 19 20 20 20 22 22 21 21 22 23 25 27 27 29 27 24 27 31 31 32 16 16 12 18 24 29 32 35 36 38 38 37 36 35 34 35 34 33 32 30 27 24
16 20 22 24 21 21 20 22 23 24 25 27 26 26 26 26 25 27 32 30 38 32 16 12 17 22 26 29 32 34 35 36 36 35 34 34 35 35 32 30 29 28 25 22
18 17 20 21 21 24 25 25 26 27 27 28 28 26 24 23 27 30 35 29 23 11 9 15 21 24 27 30 31 33 34 34 34 33 32 32 32 32 30 28 27 24 22 21

GFSCGP_700_spd_042.txt.gz
Wind_Speed
5 5 7 15 12 4 7 9 12 11 17 11 11 14 9 12 18 21 21 19 17 16 15 14 15 17 20 21 23 23 21 13 13 2 2 3 5 8 9 13 16 18 21 25
10 7 8 12 9 6 7 8 9 15 17 15 15 14 14 11 14 21 24 23 20 17 16 16 17 19 20 17 14 10 11 8 4 4 7 6 4 7 10 13 17 20 24 28
8 9 8 7 6 5 6 6 8 7 18 19 13 12 17 15 11 12 21 25 22 21 19 18 17 14 11 11 11 12 7 4 4 7 5 7 10 12 16 19 24 28 30 30
7 10 10 9 6 7 4 6 5 5 11 11 16 11 12 16 13 14 17 24 24 22 19 16 13 11 10 9 8 5 3 5 7 11 14 13 13 16 23 27 31 33 34 35
9 13 11 6 6 6 6 5 5 6 6 6 9 10 7 10 15 18 20 23 23 20 17 15 13 10 10 10 10 7 9 12 19 20 18 17 20 24 28 31 35 37 37 36
12 14 11 8 7 5 6 6 4 4 5 11 9 9 15 11 13 19 22 21 20 19 16 16 15 11 10 8 9 18 21 21 18 17 21 22 24 29 33 36 37 38 38 38
11 11 10 8 5 5 5 5 3 4 5 6 4 8 17 12 10 13 14 20 20 18 18 17 12 10 8 11 18 14 14 15 19 20 23 25 29 34 37 38 37 37 37 38
14 8 8 9 8 5 6 6 5 4 3 1 3 6 3 7 10 15 12 15 19 19 19 17 12 9 11 15 12 14 16 19 21 23 26 31 32 36 39 36 37 37 40 42
11 5 10 7 7 7 6 6 9 3 5 3 6 7 11 13 12 11 15 21 22 21 20 17 14 13 14 13 15 18 20 23 24 26 30 35 36 39 35 37 38 39 40 42
10 4 8 8 8 10 9 6 3 5 3 4 4 6 3 4 4 6 13 18 21 22 22 20 16 15 15 17 19 21 24 25 29 30 35 38 40 34 35 36 38 39 40 41
9 8 6 10 9 9 11 10 8 5 3 2 3 1 1 2 3 3 6 11 19 23 22 21 20 18 19 20 23 25 27 29 31 35 37 40 34 32 34 37 38 39 41 42
13 8 7 9 12 11 13 10 11 6 5 5 2 6 3 2 6 7 11 14 19 23 24 23 22 23 24 25 26 28 32 36 34 37 39 31 31 33 35 37 38 40 41 41
15 10 7 4 9 13 13 16 16 16 11 8 4 5 8 10 13 8 12 19 22 23 25 27 25 27 29 29 31 33 37 34 38 38 30 32 33 34 36 38 39 40 40 41
13 17 13 17 8 6 10 20 21 16 9 10 17 16 17 19 16 14 13 16 21 25 27 30 31 31 32 32 34 39 33 35 35 35 33 32 33 35 37 39 39 40 41 41
14 12 19 20 17 15 14 13 18 22 20 14 17 17 14 15 19 20 18 17 20 24 28 30 33 33 33 33 36 35 33 33 35 31 30 32 34 36 38 39 40 40 41 40
17 13 16 17 19 20 20 19 19 20 21 24 24 27 21 21 17 18 17 16 18 19 24 29 32 33 32 33 36 32 34 34 28 27 31 33 35 37 38 39 40 41 41 41
18 17 13 7 14 15 17 24 26 27 26 27 24 21 23 22 17 17 17 17 17 17 20 26 31 31 31 34 34 33 34 29 26 29 32 34 36 37 38 40 41 41 41 39
13 16 11 6 4 3 13 16 15 17 18 21 22 23 22 18 17 17 18 17 17 19 22 25 29 29 32 35 37 35 28 23 26 30 33 37 37 38 40 41 41 41 39 38
13 12 7 5 7 12 16 17 16 17 16 18 20 18 18 16 16 14 14 18 19 20 21 25 27 30 33 38 35 37 28 24 27 30 35 36 37 39 41 41 40 39 37 37
15 14 12 8 4 4 5 8 11 15 11 7 7 11 12 11 13 13 22 20 19 20 21 25 28 32 35 39 30 23 21 24 27 33 35 37 38 41 41 39 38 37 37 35
10 13 16 16 10 7 12 13 10 2 5 15 15 14 16 17 22 25 23 19 19 22 22 25 29 33 35 37 23 18 22 25 30 33 36 37 39 40 39 36 36 35 35 34
7 6 7 7 7 5 1 5 6 12 18 16 15 18 20 26 28 25 22 22 23 25 27 29 33 35 31 27 16 20 26 26 30 34 35 36 38 38 36 34 34 34 33 31
10 13 9 7 4 9 16 14 16 19 21 20 20 23 25 27 28 28 29 28 26 29 34 38 35 26 18 15 18 22 23 28 31 33 35 36 37 35 33 33 33 32 31 29
12 12 14 14 11 13 19 20 21 22 22 23 25 26 29 31 31 30 27 28 30 33 35 35 33 17 15 18 18 21 26 29 31 33 35 36 33 31 31 31 30 29 28 28
13 15 16 17 17 18 19 20 23 25 26 27 28 28 28 29 30 28 29 29 32 34 36 29 10 13 14 16 21 25 27 29 32 34 35 32 32 31 29 29 29 29 27 25
17 19 17 18 18 20 22 25 26 26 26 25 27 27 26 25 24 26 27 33 34 32 24 12 10 14 16 19 23 26 28 31 33 34 32 32 31 30 28 29 29 28 25 24

GFSCGP_700_spd_045.txt.gz
Wind_Speed
4 7 11 15 16 5 8 11 12 13 12 13 12 8 12 18 18 18 16 16 17 18 23 19 21 19 20 23 21 22 21 25 21 15 7 4 6 11 12 12 13 16 18 18
12 9 12 13 13 6 6 6 10 9 11 10 11 12 12 15 18 19 19 18 18 19 20 21 21 21 22 23 24 24 21 16 12 8 4 2 6 10 11 13 16 18 20 23
11 8 8 9 7 6 5 8 4 8 13 14 10 16 17 17 16 20 19 20 20 20 21 22 20 20 20 21 17 14 14 11 8 4 4 8 10 11 14 17 19 21 24 28
0 10 8 6 7 8 10 9 5 5 11 21 19 18 19 20 21 19 19 21 22 19 21 21 21 19 16 14 13 12 9 7 6 8 12 13 14 14 16 21 27 31 31 33
9 7 6 9 4 9 3 4 4 8 15 12 17 12 25 19 18 17 17 18 19 21 20 21 19 17 15 14 11 11 10 11 14 16 16 15 15 19 21 25 30 33 35 36
12 7 6 2 8 6 5 2 5 9 13 12 17 15 6 16 12 14 15 17 20 20 20 19 19 18 16 12 12 13 13 19 16 17 18 20 22 23 26 30 30 32 31 36
11 9 8 6 5 4 6 8 13 7 6 9 1 7 18 6 7 9 15 17 19 19 21 21 20 19 15 13 12 15 19 17 17 18 21 23 25 26 30 35 34 32 34 36
17 10 12 10 10 5 8 10 8 6 7 7 3 8 5 7 8 8 13 16 17 18 20 21 20 18 16 14 15 17 18 19 19 22 23 26 28 30 35 37 37 32 34 37
21 7 10 10 8 6 7 8 4 5 7 7 16 8 5 7 7 8 13 17 19 19 21 21 22 19 19 17 19 18 21 23 24 25 27 31 33 34 36 38 34 34 35 37
6 5 6 7 8 9 9 4 4 7 3 6 5 5 5 1 4 6 13 17 19 19 20 21 21 22 22 21 22 20 23 27 27 29 33 35 37 36 38 33 33 33 35 37
14 13 6 6 11 12 7 11 9 7 5 4 3 2 4 2 3 5 11 16 19 19 21 22 22 25 25 26 25 24 26 29 32 34 37 36 36 38 31 31 33 35 36 37
16 10 13 13 10 13 10 11 12 11 8 7 4 9 6 4 1 3 8 14 17 19 21 21 23 29 29 28 30 29 29 34 35 39 40 33 36 31 32 33 34 36 37 38
14 12 15 12 11 14 13 13 13 13 9 11 5 6 4 9 13 11 7 12 16 20 23 24 28 32 32 31 32 33 33 35 38 43 38 33 35 33 32 33 34 36 38 39
15 16 16 17 13 5 12 14 16 17 14 15 18 17 12 11 10 10 11 12 17 20 24 28 31 31 33 35 36 35 37 37 42 43 30 32 34 32 32 33 35 38 39 40
15 13 15 19 14 11 12 12 13 20 23 22 19 17 14 14 15 14 15 16 17 22 24 29 32 33 36 38 40 39 39 40 42 38 32 34 32 30 32 35 38 38 40 41
17 12 13 14 14 14 17 18 18 19 21 23 24 25 21 20 16 16 15 17 17 20 22 26 29 33 37 40 40 38 41 40 44 37 36 29 27 30 34 37 38 39 40 40
11 12 10 11 9 9 14 21 22 22 22 21 23 22 19 16 16 14 13 16 17 18 21 25 28 32 36 39 36 38 40 45 41 38 32 29 29 31 33 36 38 39 40 40
15 12 11 7 4 2 10 13 14 13 15 18 21 19 19 17 14 15 13 13 16 17 20 25 28 32 34 35 36 40 43 42 42 31 26 27 31 31 34 37 38 39 40 38
15 13 8 6 9 12 14 12 13 9 8 8 10 11 12 15 14 17 11 14 16 20 22 26 29 31 32 34 38 39 40 43 46 28 23 28 30 33 35 37 38 39 39 37
15 16 11 9 4 4 4 9 9 7 8 1 3 7 12 19 11 12 19 20 26 25 22 24 27 26 31 35 39 40 40 31 25 23 28 26 32 35 36 37 38 38 38 36
16 16 15 12 8 7 10 13 10 5 3 9 15 12 13 12 15 20 27 30 28 23 24 27 27 29 35 39 43 42 33 21 20 28 24 29 33 35 37 39 38 37 36 36
7 8 9 10 7 7 9 2 2 7 15 19 19 17 20 22 26 27 29 30 28 27 28 29 31 35 41 42 45 35 21 22 20 23 27 30 33 36 38 38 37 35 34 33
8 10 5 8 4 9 9 13 17 19 21 23 24 22 25 27 29 30 30 32 31 32 31 34 34 40 46 43 36 23 17 16 20 24 28 32 34 36 37 37 36 33 32 31
12 14 12 13 6 9 13 20 22 23 21 22 25 26 27 28 27 33 31 33 32 33 34 35 38 37 37 32 23 18 18 19 23 27 30 32 35 36 35 35 35 33 31 30
11 12 11 15 13 15 15 20 20 21 25 26 28 27 26 26 29 31 31 34 32 33 35 36 41 35 18 17 20 21 21 22 26 29 31 34 35 35 36 36 35 33 30 29
17 12 14 10 18 18 20 25 25 26 26 26 27 28 28 27 28 29 29 30 30 32 33 25 17 17 19 23 22 20 23 26 29 32 34 36 36 37 36 35 34 32 31 29

GFSCGP_700_spd_048.txt.gz
Wind_Speed
2 6 11 14 15 10 6 8 14 13 12 11 12 15 15 17 16 16 16 17 18 16 22 23 16 20 21 23 19 18 16 19 22 22 17 13 9 7 7 8 12 17 18 17
10 10 10 9 15 13 9 10 10 12 10 12 15 13 12 18 19 20 19 19 20 19 23 19 20 20 23 26 22 18 22 22 21 16 14 11 7 8 10 12 16 16 18 22
16 11 10 21 20 18 13 9 12 10 8 11 8 14 17 17 18 20 21 21 21 22 25 23 22 24 27 28 25 23 22 16 15 12 11 10 12 12 14 16 19 19 21 22
13 20 15 11 10 8 10 3 7 13 14 14 5 10 16 15 18 22 25 25 25 24 26 25 25 28 26 24 26 19 17 15 13 11 13 12 15 16 19 20 24 23 26 27
9 11 12 11 10 3 3 9 7 12 12 8 5 13 28 24 27 28 27 24 24 24 23 24 24 24 22 21 18 19 15 12 11 13 14 14 14 15 17 20 25 28 32 37
10 10 11 7 1 4 2 4 10 12 15 11 17 22 13 22 23 23 21 24 25 26 27 26 22 24 17 15 16 14 13 15 14 16 17 15 17 20 24 25 27 30 33 34
8 14 8 6 6 5 6 10 7 7 9 5 10 10 4 12 15 12 23 20 19 27 30 27 25 22 21 16 15 13 14 19 19 18 18 20 21 23 27 30 31 34 34 32
14 14 14 13 10 7 11 7 3 3 3 6 9 5 6 7 6 6 13 15 22 24 24 21 21 21 19 18 16 15 17 22 20 19 20 21 25 28 30 33 34 35 36 32
5 5 8 2 7 4 11 5 1 9 4 5 10 16 3 4 6 4 11 16 19 18 18 20 21 21 21 21 19 18 21 24 23 23 25 26 28 31 33 36 37 37 34 32
13 6 17 10 13 9 8 7 4 4 2 4 11 15 14 5 4 2 12 16 19 17 18 20 22 23 24 25 24 22 22 27 26 28 28 30 33 34 37 38 36 34 33 31
10 23 11 9 8 8 7 9 10 11 7 1 4 5 6 5 5 3 10 16 19 17 16 19 23 24 25 28 28 27 23 27 31 34 32 35 38 41 45 38 32 34 33 33
14 10 9 12 7 7 8 10 9 11 9 6 4 10 3 3 1 2 6 13 16 20 17 20 21 26 28 30 29 33 29 31 35 36 36 36 39 42 44 40 34 34 33 33
12 10 12 14 11 9 15 14 14 13 9 11 6 4 6 8 10 11 6 10 16 19 20 21 23 27 29 34 38 37 34 34 39 37 35 37 44 41 48 34 32 31 32 36
17 11 14 13 15 7 8 10 14 15 12 15 21 19 11 15 11 8 11 10 13 17 19 21 25 27 33 38 38 34 37 39 39 34 37 40 41 45 39 31 30 30 36 34
18 15 16 18 18 16 12 13 10 14 17 20 22 19 15 15 8 8 8 11 13 15 20 20 27 32 39 39 34 34 40 40 35 36 37 43 44 45 36 28 29 35 32 37
18 14 14 14 12 14 15 17 19 20 20 20 21 22 17 15 13 15 14 18 15 16 18 28 29 33 34 30 33 38 41 38 37 37 43 44 40 31 30 29 34 29 33 37
13 14 8 8 11 11 14 20 19 20 20 19 21 20 16 17 16 12 15 10 15 16 17 22 25 25 26 29 34 40 39 38 39 40 42 40 33 25 27 31 28 31 35 37
13 12 11 7 6 1 13 8 11 13 12 12 13 13 11 14 13 16 18 10 12 14 15 18 21 27 29 32 37 39 39 39 41 44 41 38 31 31 30 25 29 32 36 39
11 12 11 7 10 11 16 9 8 6 5 4 6 8 6 13 13 13 9 13 13 15 19 20 23 27 32 35 36 38 38 40 42 45 42 29 28 28 23 26 31 36 38 39
15 14 13 9 4 5 3 9 8 7 6 3 1 4 7 13 9 12 16 18 23 25 28 23 24 26 27 32 35 37 40 42 47 43 32 25 26 21 23 28 33 37 37 38
13 17 17 13 7 6 8 13 13 5 5 11 9 14 18 12 15 20 23 28 29 30 28 29 30 28 32 36 38 39 40 39 37 30 27 24 22 25 28 32 35 36 37 36
8 10 12 13 7 8 12 11 5 11 10 14 21 19 19 21 21 26 24 29 30 30 31 32 33 36 38 38 39 42 41 44 31 23 23 25 24 27 30 33 35 36 38 36
9 10 6 8 3 9 8 11 12 14 21 21 23 21 22 23 23 20 26 28 29 33 35 34 35 35 35 40 39 36 30 20 21 25 22 24 27 30 32 35 36 37 38 35
11 13 13 12 8 8 10 15 22 20 20 20 22 23 24 24 22 22 26 32 34 33 32 29 29 32 37 29 19 15 21 25 20 21 24 27 30 32 34 35 37 38 38 37
12 12 9 11 10 12 17 23 23 20 20 22 26 25 23 22 24 27 30 31 30 27 27 29 28 19 13 17 23 24 20 19 21 24 27 30 32 35 37 38 38 38 37 36
15 12 15 13 18 21 23 23 22 24 25 26 26 25 26 26 23 24 24 24 25 26 26 21 16 19 19 14 16 18 21 23 25 28 31 34 37 39 40 40 39 36 35 36

GFSCGP_700_spd_051.txt.gz
Wind_Speed
3 1 3 1 6 11 4 22 19 13 12 15 20 23 18 18 14 10 12 14 14 14 11 11 14 13 11 7 9 7 10 12 15 18 19 15 12 12 12 9 11 13 15 21
6 4 8 10 18 19 19 21 7 14 13 9 9 26 18 21 20 15 14 15 18 19 21 18 19 20 18 14 12 12 15 16 19 21 17 13 13 12 10 13 13 15 18 22
10 12 13 18 11 13 14 15 14 7 3 11 12 12 21 22 23 19 18 18 17 21 20 23 23 26 25 22 19 17 19 20 23 18 14 12 12 11 13 15 16 18 21 23
12 15 13 17 20 20 20 13 4 4 8 6 8 4 6 20 19 21 22 21 20 22 24 24 23 25 29 27 23 22 21 25 21 15 13 13 13 16 17 19 18 16 19 20
2 16 17 16 17 10 3 12 6 7 12 15 8 3 15 16 18 21 22 27 27 27 27 27 27 25 28 30 25 24 27 23 18 15 13 14 18 21 20 21 21 23 25 27
6 12 15 5 8 1 3 3 6 5 2 7 22 12 5 20 30 27 23 24 26 27 27 29 27 25 21 21 25 27 25 20 17 14 15 17 20 22 24 24 26 27 29 36
12 10 8 11 14 6 5 8 3 4 7 5 10 12 24 12 20 25 27 27 28 25 28 30 30 29 29 22 19 22 21 17 12 15 18 18 21 22 24 26 28 29 31 38
16 6 14 7 9 9 7 5 3 4 1 7 5 5 2 10 11 18 22 18 27 30 36 36 36 37 35 25 18 19 19 16 15 16 20 20 21 24 27 31 31 33 37 39
11 8 11 11 5 7 11 4 6 5 6 4 5 3 8 11 8 6 20 24 28 26 29 33 33 29 23 18 17 19 22 22 20 21 21 23 23 25 29 31 36 40 42 45
21 7 8 13 13 10 9 5 6 6 2 3 5 7 10 9 5 12 13 13 13 17 20 21 22 22 21 18 17 21 25 27 27 28 27 28 27 29 34 34 37 39 43 47
20 9 3 8 19 13 13 13 11 10 8 4 1 1 5 5 4 2 8 10 10 11 11 15 18 21 22 21 21 21 25 28 28 29 31 35 35 35 34 41 37 45 43 39
9 5 5 16 11 10 11 8 6 14 8 2 2 8 9 6 6 8 6 8 15 16 14 15 16 20 25 25 24 23 25 27 32 35 38 39 40 41 38 43 41 46 37 32
14 8 8 8 11 10 12 13 19 14 8 13 6 4 4 17 17 11 5 6 13 16 18 21 20 20 25 27 29 30 32 33 34 37 41 41 43 42 44 39 48 43 37 32
17 10 8 12 9 11 11 12 9 15 16 13 15 18 21 19 24 14 9 8 10 14 17 20 22 21 25 33 31 32 34 36 40 43 42 42 45 43 43 46 43 37 32 30
15 20 16 13 12 19 10 12 11 9 14 16 15 15 14 18 5 7 11 6 7 10 12 17 21 24 27 30 33 37 40 40 42 39 41 43 42 45 44 46 35 34 31 33
19 18 17 15 17 16 15 13 19 22 17 17 16 16 9 11 9 8 9 11 10 9 14 19 23 25 28 31 35 39 40 41 38 38 42 44 45 51 40 36 31 32 33 24
18 18 16 13 16 18 19 25 22 18 15 16 15 10 13 14 8 8 12 15 16 15 19 20 19 22 28 33 38 36 36 38 41 42 44 46 49 45 43 34 32 31 24 25
19 15 13 9 10 1 14 6 10 6 6 7 8 11 10 10 11 10 13 17 18 18 17 17 20 25 28 32 34 37 40 41 44 46 47 47 49 46 40 33 26 22 26 29
18 20 12 7 13 11 13 11 12 10 4 6 11 11 11 9 14 14 13 14 12 16 16 17 23 26 26 30 34 37 41 42 43 46 49 49 50 35 25 19 24 25 28 32
21 20 19 11 5 7 5 8 11 8 7 9 13 16 16 12 16 19 15 15 18 21 26 29 29 26 25 29 32 34 39 42 43 46 54 43 34 16 24 21 23 28 31 33
19 19 20 18 10 8 11 11 11 9 8 12 13 12 12 19 20 18 20 24 24 27 30 31 30 29 29 30 32 36 39 43 48 44 31 18 21 24 20 24 27 30 33 36
13 12 16 14 10 10 15 15 13 12 17 16 14 14 21 19 19 20 21 25 27 28 28 29 29 29 29 30 32 36 40 37 32 26 20 22 20 20 23 26 29 33 36 37
11 13 9 8 4 8 13 16 13 13 15 16 18 20 19 18 18 24 27 27 26 26 25 25 24 26 28 32 35 33 30 21 19 21 15 17 21 23 27 31 33 35 36 37
16 12 13 9 7 16 17 17 16 15 18 21 20 18 19 20 22 25 26 26 23 21 20 21 23 25 28 28 24 18 21 21 15 17 18 21 25 28 31 34 36 38 39 40
17 17 15 15 12 17 19 20 20 21 24 19 20 21 21 20 22 24 22 20 19 19 21 22 24 23 19 18 19 19 17 18 18 20 22 26 30 33 36 38 40 41 40 39
19 19 19 21 23 24 24 26 25 23 21 22 23 22 21 22 21 21 20 22 22 21 21 21 18 17 17 18 18 17 18 21 24 26 29 31 34 37 40 42 43 41 42 40

GFSCGP_700_spd_054.txt.gz
Wind_Speed
2 1 5 5 6 2 6 13 20 23 23 23 16 13 16 14 15 18 17 14 11 8 7 8 9 9 10 11 9 7 8 9 11 11 12 13 11 11 12 15 16 14 16 17
3 8 6 5 11 14 13 13 17 14 9 14 21 19 18 21 20 14 11 10 12 14 15 13 12 13 9 10 12 12 11 12 14 14 15 16 14 13 15 15 15 16 17 17
10 11 11 8 12 14 17 16 13 13 6 5 9 15 24 23 20 16 15 11 12 12 15 17 18 15 14 13 14 15 15 14 17 18 19 16 15 14 13 15 16 16 18 21
11 14 10 10 11 8 22 7 8 8 4 3 1 6 21 26 25 24 19 21 19 17 22 18 17 18 17 19 21 22 21 18 19 22 20 16 14 13 15 16 17 19 22 23
10 6 11 3 6 11 11 12 10 10 6 6 9 3 13 17 26 29 26 26 25 25 23 23 24 21 19 19 24 25 24 21 23 24 18 17 16 15 17 18 18 22 24 25
7 5 5 4 4 7 7 8 8 6 4 2 11 11 17 20 23 31 28 27 30 30 27 26 24 24 22 21 28 20 26 28 26 20 17 19 20 17 18 19 21 24 26 30
16 11 2 3 7 6 5 5 1 1 1 5 3 6 18 13 15 28 30 27 23 29 30 29 27 27 25 26 28 22 25 25 22 19 18 18 18 19 20 22 25 29 31 33
17 11 14 8 5 5 12 8 4 3 3 4 6 6 9 7 11 16 23 27 34 25 24 24 26 26 26 26 25 30 28 22 21 20 20 19 20 23 26 29 30 34 37 36
12 14 9 14 8 7 3 5 5 2 6 3 3 3 8 12 12 11 18 23 23 26 28 23 27 28 24 29 32 31 25 23 23 23 21 22 24 28 31 35 38 36 41 32
26 12 11 8 14 11 9 5 4 4 2 3 4 5 10 10 4 6 4 16 22 20 20 23 26 26 29 32 28 24 23 23 24 23 24 26 30 33 32 35 37 41 50 39
30 22 13 13 17 21 15 15 13 10 9 4 1 3 1 6 1 5 5 3 1 6 12 15 16 17 19 20 21 21 19 19 21 24 26 30 36 35 34 42 49 40 54 41
25 23 18 18 5 17 19 16 17 10 7 4 4 8 8 8 10 11 5 5 6 8 10 9 9 11 13 15 17 20 19 21 21 22 25 33 31 40 44 39 56 43 50 56
17 10 7 10 12 16 15 16 16 17 14 15 7 9 9 8 12 14 14 7 10 11 12 14 16 17 18 19 15 21 26 29 31 25 31 31 35 38 39 43 44 51 50 53
22 19 18 20 16 14 10 11 14 11 11 14 17 17 17 18 21 19 18 13 10 12 15 17 19 21 21 20 24 26 31 29 32 35 32 37 42 37 40 42 50 50 53 47
22 17 17 13 12 13 12 9 12 14 10 6 10 19 16 16 12 9 17 13 14 12 14 17 19 21 23 26 27 28 32 33 32 31 37 38 40 38 44 53 49 53 48 46
19 20 20 24 21 21 19 16 16 18 17 18 16 14 11 10 9 9 12 20 19 17 17 19 19 21 24 26 28 28 30 32 30 33 37 37 41 45 42 51 52 54 45 32
18 19 20 21 20 18 21 26 24 22 23 24 20 17 13 14 15 13 14 16 16 16 16 19 21 21 20 19 23 26 32 35 37 38 39 42 45 47 52 56 48 33 33 21
16 19 17 10 12 2 13 15 13 17 13 12 14 14 12 12 12 9 9 10 12 13 14 15 17 17 19 23 26 30 32 34 35 37 42 44 47 50 53 44 39 28 21 20
21 17 12 7 15 10 8 9 14 14 10 11 12 14 13 11 8 9 10 12 14 14 14 15 16 18 24 28 27 28 32 35 38 41 43 45 53 52 36 37 24 21 20 22
19 19 21 12 6 7 11 12 21 18 16 16 13 12 11 12 11 13 14 16 16 17 19 21 24 23 22 21 24 28 32 35 38 41 46 49 35 38 31 27 22 21 23 26
24 25 23 24 14 14 15 11 12 17 14 19 18 16 14 14 17 18 20 19 21 21 22 22 20 17 18 21 24 28 32 36 38 42 40 39 38 29 28 23 22 25 28 31
22 17 20 20 15 13 19 18 23 17 17 15 15 13 14 19 23 22 21 21 20 20 20 18 17 17 20 24 27 29 33 37 38 38 35 29 29 26 24 25 26 29 32 35
21 22 17 15 9 11 9 18 18 17 12 11 12 13 19 22 21 21 20 19 19 20 19 18 19 22 23 28 31 32 35 35 30 26 28 27 23 25 27 29 31 34 37 40
22 15 16 16 16 13 12 13 14 15 14 14 14 18 20 21 22 20 19 18 19 19 21 23 24 25 29 30 31 29 24 24 25 24 23 24 25 28 30 33 36 39 41 43
24 22 22 22 17 17 17 18 18 18 18 19 21 21 22 22 21 20 21 18 19 22 24 26 29 28 28 24 21 22 23 25 24 23 24 26 29 33 36 38 41 43 45 45
26 23 26 26 21 21 20 20 22 22 23 23 23 23 23 22 21 20 19 20 22 24 26 27 26 23 20 20 21 24 22 23 24 26 29 32 36 38 41 45 47 48 48 47

GFSCGP_700_spd_060.txt.gz
Wind_Speed
3 1 2 5 6 6 9 6 6 12 12 18 17 16 15 9 6 8 9 9 12 12 12 14 16 17 17 17 16 15 14 13 10 7 4 3 3 5 7 9 10 12 14 15
5 2 3 4 7 9 11 10 11 17 12 21 13 12 16 15 8 6 5 7 13 16 15 16 16 15 14 14 13 13 10 9 8 6 7 7 8 8 10 10 10 13 15 14
7 3 9 10 12 11 15 14 16 17 21 20 8 6 20 23 20 14 13 11 12 12 13 14 12 11 12 11 9 10 9 9 8 10 12 12 11 10 10 9 11 14 16 16
7 4 13 16 13 11 15 13 15 17 6 4 4 4 8 19 23 22 21 19 16 16 15 14 11 11 8 9 11 12 13 10 11 15 17 15 14 14 14 13 14 17 18 20
4 2 8 11 10 10 11 11 13 3 6 7 8 4 10 8 17 22 23 21 18 16 14 13 9 6 9 8 8 10 11 11 12 16 18 17 17 17 21 18 16 17 19 22
10 6 6 2 4 5 6 5 2 5 4 3 4 7 7 10 13 14 19 21 20 18 19 16 15 14 13 13 16 14 13 13 14 15 14 17 20 23 22 19 17 19 23 26
15 11 11 8 8 6 4 6 4 3 1 5 5 6 11 11 13 12 14 17 18 22 22 21 18 16 16 14 14 17 20 12 15 15 14 16 20 23 21 19 20 24 27 29
19 9 13 10 9 5 6 4 2 2 2 4 7 5 6 10 12 11 8 8 10 14 16 21 19 17 14 20 14 15 21 16 17 20 17 20 18 19 22 21 23 27 30 30
16 13 10 8 12 9 5 5 6 3 3 3 7 12 16 10 15 10 9 9 7 9 12 14 16 16 14 14 16 19 20 20 21 21 23 22 18 20 22 24 27 31 24 27
14 10 13 8 8 12 11 8 3 4 1 4 5 7 9 14 4 6 6 6 6 6 8 10 9 12 11 12 15 19 20 22 25 28 24 21 20 21 23 23 26 27 28 30
24 15 11 17 16 12 13 16 13 9 4 4 1 7 11 6 3 5 8 7 6 5 6 8 11 14 12 13 16 17 21 23 25 23 21 20 20 20 21 24 26 27 29 37
23 13 20 20 16 17 20 18 19 17 7 7 7 19 16 13 14 11 12 9 5 6 5 5 5 6 7 9 11 11 13 14 14 15 16 16 20 21 24 23 25 38 28 32
24 17 18 13 19 24 22 22 23 22 19 14 7 13 12 19 18 17 14 16 14 11 11 7 7 9 9 10 12 16 18 20 18 17 19 22 21 27 29 19 26 28 32 35
19 24 24 23 25 18 17 18 15 19 17 19 24 23 19 18 17 15 13 14 17 16 15 14 13 14 15 15 18 20 23 23 25 26 28 30 32 35 41 26 30 31 37 36
26 24 25 24 20 18 21 23 21 26 24 21 23 23 15 16 16 17 18 18 18 19 18 18 17 18 18 21 23 24 25 25 26 28 27 30 32 40 25 31 40 44 35 45
26 23 23 24 24 25 19 19 21 20 19 22 21 24 19 21 20 18 17 19 18 18 20 21 21 21 22 23 25 26 25 26 27 26 25 26 27 32 37 38 33 43 46 48
30 31 26 23 22 20 19 26 25 25 28 31 32 34 30 29 30 29 27 24 20 21 22 21 19 19 21 22 23 24 23 23 23 23 25 25 29 31 35 38 35 42 49 36
25 25 28 22 18 2 27 26 26 28 28 31 34 36 34 30 29 27 22 20 17 15 15 17 19 21 21 21 20 19 21 22 24 22 24 27 29 33 35 43 45 37 37 46
25 27 21 15 18 21 19 22 21 17 21 18 20 17 15 16 17 16 16 14 14 15 17 19 20 20 20 20 21 23 26 23 22 24 24 27 33 36 39 35 35 42 45 40
27 27 27 16 8 8 24 19 18 19 28 22 19 16 14 14 17 15 14 14 15 15 17 18 19 20 21 21 21 20 21 21 22 26 28 29 34 30 32 41 44 42 37 38
29 28 29 27 16 17 20 16 11 18 30 19 16 21 18 17 16 16 15 14 15 18 20 20 21 20 19 19 19 19 21 21 22 25 29 27 35 41 41 41 37 37 37 37
32 29 27 27 19 14 22 19 24 24 20 18 17 16 22 20 18 16 15 16 19 21 21 22 21 21 21 22 23 22 21 22 21 29 35 35 37 36 33 34 35 36 38 40
29 31 30 29 26 27 18 18 18 19 20 21 17 12 17 18 17 17 17 20 22 22 22 22 23 24 26 24 25 25 22 25 33 36 33 32 31 32 34 36 37 38 41 44
26 26 28 30 33 31 30 27 24 19 16 17 17 13 14 17 18 19 21 22 22 23 23 24 25 27 25 26 27 23 29 34 34 28 29 30 31 32 33 36 39 43 45 48
30 28 32 34 29 24 29 29 23 20 19 17 16 16 16 18 20 21 23 24 24 24 24 24 26 24 27 25 26 34 33 26 26 27 29 30 31 34 36 39 42 45 47 52
31 31 34 42 40 29 33 22 17 19 19 18 18 18 18 20 22 24 26 26 25 25 25 24 25 26 28 31 32 26 24 25 26 27 28 31 34 37 40 43 44 47 50 53

GFSCGP_700_spd_063.txt.gz
Wind_Speed
6 5 4 6 7 6 7 6 9 6 12 19 16 20 7 7 5 4 5 8 8 11 14 15 15 15 15 16 16 15 14 14 14 13 11 10 9 10 10 10 11 12 11 12
10 6 6 3 4 7 7 9 7 8 12 15 17 5 10 7 3 2 3 7 11 13 15 20 22 22 19 17 16 16 16 15 13 13 12 11 11 9 9 10 11 12 12 13
12 6 7 7 8 10 10 12 11 13 15 8 9 5 9 10 11 10 8 9 13 12 13 16 18 17 17 16 16 15 14 14 13 12 11 11 10 9 8 9 13 16 15 15
11 12 8 12 12 11 14 8 9 12 11 2 4 4 3 8 15 15 14 16 15 18 16 15 14 13 12 13 14 14 14 14 14 14 14 14 14 13 12 13 19 20 16 16
9 8 6 8 10 8 8 5 8 8 5 4 3 2 6 9 9 11 13 19 21 19 20 16 15 15 13 15 14 14 15 16 17 17 16 17 19 18 17 20 21 22 18 17
16 9 6 2 5 5 5 5 3 4 3 1 4 5 6 9 10 8 10 16 20 23 21 19 19 18 17 18 17 15 14 17 18 19 18 16 17 18 21 22 25 24 21 20
20 18 11 7 4 7 8 5 1 1 2 2 5 5 9 9 8 9 7 12 17 21 23 23 21 20 21 21 19 18 16 16 13 23 20 15 14 15 21 23 28 25 23 22
22 11 17 9 8 6 9 8 4 3 2 1 4 5 5 12 10 10 9 5 11 18 20 22 23 23 20 16 20 18 11 13 18 15 17 21 18 23 21 25 25 23 24 23
24 17 10 11 8 10 8 8 5 4 2 1 4 8 13 7 12 7 5 7 4 8 12 16 18 19 19 18 18 20 18 16 20 23 20 20 22 22 21 22 22 22 23 25
15 8 18 15 12 12 10 5 3 4 3 3 4 4 4 10 3 7 9 7 2 6 9 12 13 15 15 15 16 18 19 19 21 24 25 24 23 22 21 23 23 21 18 27
27 17 10 17 16 13 14 14 9 5 5 3 2 5 4 8 5 10 10 10 8 6 3 8 12 12 13 16 19 21 21 21 22 23 23 21 21 21 21 20 22 24 26 27
28 16 21 18 16 16 17 16 15 9 6 9 9 17 16 7 6 9 12 12 6 11 8 6 6 9 9 8 11 15 17 17 18 18 14 16 17 14 17 19 22 26 26 27
30 18 18 10 19 20 19 21 19 18 20 19 10 10 10 13 13 13 16 12 13 12 11 10 7 7 7 9 10 10 12 14 17 19 22 22 22 22 23 25 27 30 25 26
24 28 21 20 23 16 21 24 23 23 16 20 27 28 22 16 14 11 13 15 14 14 14 15 14 15 13 12 11 13 17 19 20 22 24 24 24 26 28 32 23 38 32 27
26 20 23 27 24 25 25 23 20 19 22 24 27 28 22 17 18 15 15 15 17 17 16 19 19 19 18 17 17 19 21 22 23 24 24 24 25 26 27 25 33 33 28 30
32 26 24 26 24 25 22 22 21 20 21 24 25 29 23 21 20 18 18 17 16 17 18 19 22 23 22 22 23 23 24 26 28 28 28 29 29 28 24 21 35 33 43 33
32 31 29 25 25 25 22 27 26 24 24 26 31 33 28 27 27 28 28 29 27 25 25 23 22 22 21 23 23 24 25 26 28 27 26 26 26 23 22 28 30 38 35 37
20 26 28 22 21 6 25 27 26 24 27 29 33 34 30 28 28 28 26 22 21 20 19 18 17 18 20 21 21 22 22 23 24 26 27 26 22 21 29 31 33 35 30 33
20 20 17 16 21 22 17 25 25 21 33 28 27 19 20 17 17 17 15 13 14 14 15 16 18 18 19 21 23 23 24 25 27 26 23 24 22 26 30 33 28 33 38 38
21 23 24 13 11 10 26 26 26 25 30 25 22 22 18 15 15 14 14 15 16 15 16 18 18 19 21 21 21 22 22 23 24 24 21 25 21 25 24 31 39 38 36 34
24 24 27 26 21 20 18 19 17 15 34 22 17 13 15 18 15 13 16 18 16 16 16 17 19 19 19 19 19 20 21 22 21 20 21 22 23 30 34 33 31 30 32 32
30 30 25 26 21 17 21 22 25 31 26 20 18 15 14 15 17 19 19 18 17 15 16 18 19 19 19 18 18 20 20 19 20 17 20 27 31 29 26 27 28 30 32 35
27 32 29 31 29 28 23 21 22 24 21 23 19 17 15 18 20 20 19 18 16 16 18 19 20 20 20 20 21 19 20 20 18 23 30 28 25 26 27 28 30 32 35 38
37 33 30 31 33 31 29 28 28 29 28 23 20 18 14 15 20 20 19 18 17 18 20 20 20 20 20 21 20 22 22 21 26 30 24 24 25 27 28 30 33 36 39 41
31 30 34 34 36 31 29 25 26 30 29 25 21 19 17 19 20 20 19 19 20 21 21 21 20 20 22 22 24 24 24 29 28 23 24 25 25 27 30 32 35 38 41 44
34 33 31 35 27 22 27 31 29 32 29 24 22 20 19 20 21 20 20 21 22 23 23 22 22 23 22 24 26 29 31 24 23 24 24 26 28 31 33 35 37 39 42 45

GFSCGP_700_spd_066.txt.gz
Wind_Speed
14 10 11 9 12 10 9 6 6 7 5 8 8 11 4 2 1 4 5 7 10 11 8 11 15 16 15 15 16 17 17 17 18 17 15 13 12 13 15 16 17 17 18 16
13 12 9 8 8 8 8 8 8 4 5 11 8 3 5 7 2 2 3 6 11 14 14 14 16 17 17 18 18 18 17 16 15 14 14 14 14 13 14 17 18 17 17 17
16 8 13 10 8 8 10 11 7 7 9 8 6 5 12 13 9 7 8 9 11 13 15 16 16 16 18 19 18 17 17 16 16 16 17 16 15 15 13 13 16 16 18 22
18 16 13 14 12 11 11 8 9 8 6 3 4 3 3 3 4 9 12 13 14 15 17 20 21 17 16 17 18 19 18 18 19 19 18 18 16 16 15 15 16 18 22 25
18 16 16 13 15 14 9 6 6 7 8 5 5 9 4 4 6 6 12 17 18 17 17 19 19 21 19 19 19 19 20 20 20 20 20 19 20 21 22 21 23 23 24 24
17 14 11 8 7 12 9 5 1 4 5 8 3 5 4 3 6 6 7 11 21 25 22 20 19 22 22 21 21 21 20 20 19 19 21 20 20 22 26 24 25 27 28 28
23 19 14 10 7 11 9 7 7 6 5 3 3 5 11 8 4 7 9 11 16 22 29 26 26 24 22 24 24 23 21 17 16 17 19 22 22 23 24 23 25 30 30 30
26 22 20 16 13 10 14 13 6 6 5 5 4 6 2 6 8 9 8 10 12 21 24 32 29 26 25 24 25 24 21 21 18 19 21 19 29 27 25 28 30 32 30 30
27 22 16 18 16 12 11 13 10 2 2 3 7 7 7 4 8 6 3 7 7 13 22 28 30 30 29 27 24 22 22 19 17 16 22 25 20 22 22 29 32 34 30 29
13 20 17 16 19 17 12 12 8 7 4 6 6 7 8 2 3 3 7 6 6 6 14 20 28 30 31 30 30 29 29 29 28 29 26 26 28 28 28 27 27 31 29 28
23 16 10 23 19 16 16 14 10 7 6 4 3 5 7 7 4 5 4 7 6 2 0 10 17 20 23 28 30 27 27 28 27 27 25 27 27 28 28 27 27 26 27 29
30 17 17 16 17 20 18 17 18 13 10 8 7 15 16 14 10 6 8 8 7 8 9 7 6 14 20 23 26 27 28 29 27 28 27 27 25 22 22 21 26 24 27 34
35 21 17 17 15 20 19 19 17 16 16 15 11 12 4 7 13 14 10 11 11 10 10 9 9 10 12 14 14 16 19 21 24 24 24 22 23 24 26 24 25 26 33 34
35 25 28 24 18 15 21 21 20 20 18 18 21 21 17 18 16 15 14 14 13 16 13 13 13 14 16 15 14 16 17 18 18 19 22 23 24 25 25 26 28 34 30 28
33 30 27 26 20 18 19 19 21 26 26 24 20 20 20 18 18 18 19 16 14 18 19 18 17 19 21 20 19 18 20 22 24 24 25 26 28 28 29 30 30 31 30 34
34 25 23 21 21 22 22 22 23 24 20 21 23 24 19 19 20 20 22 20 19 18 20 20 20 20 24 25 25 24 24 25 26 28 29 31 32 32 32 32 30 28 25 24
29 27 22 23 18 16 20 28 22 21 24 22 23 23 20 24 26 25 26 24 25 26 28 28 27 26 27 27 26 27 27 27 28 30 32 33 30 28 29 31 25 21 27 30
23 29 23 19 18 8 26 21 21 24 23 23 26 25 27 28 27 29 28 29 27 27 24 23 23 23 21 21 21 22 23 24 26 27 27 27 29 30 23 21 23 26 28 31
15 21 23 17 20 19 17 24 24 26 25 24 23 27 23 27 23 23 23 24 22 18 17 16 16 15 15 16 19 21 23 24 24 25 26 27 24 23 18 24 28 28 28 33
20 24 18 17 11 8 21 25 25 21 24 23 25 19 21 21 24 18 18 18 18 19 19 17 16 16 17 18 20 22 22 22 22 22 23 24 23 24 24 25 29 30 31 29
24 24 27 21 11 14 16 15 16 17 31 16 18 19 20 18 19 21 18 19 21 21 19 17 16 15 17 18 19 19 19 20 21 23 22 22 23 23 24 27 29 27 27 28
14 21 22 21 14 14 20 19 24 28 20 18 19 20 20 20 19 19 19 20 23 21 19 17 16 17 18 18 19 19 19 21 21 22 22 19 21 26 28 27 26 27 27 28
20 16 18 23 19 21 18 15 19 21 20 21 21 23 22 21 21 20 22 23 23 21 19 19 18 18 18 19 19 20 20 20 21 20 20 22 27 26 24 25 26 27 29 31
35 35 29 28 27 25 24 24 26 25 24 25 24 25 25 22 21 23 25 25 24 23 22 20 19 19 20 21 21 21 20 22 21 21 24 27 24 23 25 25 26 29 31 33
25 26 38 46 39 33 33 28 27 24 24 24 25 26 26 22 22 23 27 27 26 24 23 22 22 22 22 22 23 23 23 23 22 25 26 22 23 24 25 27 29 32 34 36
30 30 32 33 27 27 26 25 29 29 29 31 29 28 25 23 24 25 28 28 26 26 26 25 24 23 24 24 26 26 26 26 25 22 21 23 24 25 27 30 33 32 35 38

GFSCGP_700_spd_069.txt.gz
Wind_Speed
14 14 16 12 15 16 12 10 12 8 4 8 8 10 1 3 7 8 6 11 11 8 6 7 9 11 12 12 12 14 16 15 16 18 19 20 20 20 21 20 19 20 21 20
17 19 13 12 9 12 11 12 12 9 7 7 9 6 4 7 4 10 11 8 9 11 12 9 11 10 10 12 15 16 16 18 18 17 17 17 17 17 18 18 19 20 20 20
22 12 14 11 10 10 11 13 11 9 11 12 10 7 9 10 11 10 12 12 7 8 18 11 12 12 15 17 17 17 17 18 17 18 18 17 18 18 19 17 18 18 20 21
22 18 12 15 14 12 15 12 12 12 14 1 11 4 15 12 11 14 14 15 16 10 16 16 15 16 16 17 18 17 17 18 18 18 18 18 18 17 16 16 18 20 22 23
25 21 19 18 16 13 15 8 10 11 13 15 8 11 11 13 12 14 17 17 18 18 18 17 16 16 16 18 19 19 19 19 20 19 20 19 19 19 20 22 21 23 24 25
24 17 18 18 14 16 13 10 9 10 13 11 13 9 14 13 5 5 7 15 20 20 21 19 19 19 20 21 22 21 22 22 22 21 21 21 22 22 23 23 24 30 29 30
26 22 18 15 10 12 13 12 10 7 8 9 4 6 15 6 5 5 8 9 15 22 25 24 25 25 25 24 24 24 24 23 21 21 21 21 22 24 24 24 25 28 26 30
29 31 26 18 19 14 18 17 9 7 7 9 7 8 4 6 5 6 7 9 12 15 23 29 28 28 26 27 28 26 25 24 22 18 17 19 19 24 28 27 27 28 28 32
30 30 25 22 19 17 16 23 17 10 6 6 10 11 12 7 6 6 4 4 8 11 14 24 28 28 27 29 29 26 25 25 26 25 23 22 23 24 28 19 24 25 33 35
13 25 18 24 19 19 15 16 14 15 9 9 17 12 9 4 3 5 2 1 2 5 9 14 22 28 29 28 30 29 28 29 28 29 23 25 26 26 28 29 32 32 34 35
26 20 22 19 26 23 20 17 17 15 20 7 8 8 2 2 5 6 6 4 2 1 2 6 12 21 26 31 35 36 33 31 32 32 33 32 32 33 32 32 32 34 34 33
34 19 22 24 22 22 21 21 23 19 18 16 17 19 13 12 14 12 11 10 8 6 5 7 8 13 19 23 27 30 32 31 30 31 35 35 33 32 31 32 31 31 29 29
34 31 22 21 19 18 24 22 22 24 21 20 14 15 12 11 10 10 13 11 11 10 9 9 10 12 15 21 25 25 25 26 28 32 37 31 28 28 29 29 28 29 31 32
36 28 33 27 26 22 24 25 25 24 22 22 25 23 18 17 17 16 15 14 12 11 11 11 11 14 15 18 22 25 24 25 26 27 26 26 26 27 27 29 30 31 31 30
31 38 28 29 24 17 20 23 26 27 27 29 25 24 20 15 14 15 15 16 18 15 14 18 16 18 20 20 24 23 23 24 24 24 25 26 25 27 29 31 32 32 33 31
29 30 32 31 25 25 23 21 22 23 24 26 26 26 20 19 17 18 17 16 20 24 21 19 21 23 28 26 30 27 28 28 28 28 27 28 29 31 33 33 34 33 32 30
25 31 29 30 27 27 31 28 25 23 24 23 25 21 18 18 18 19 19 22 23 26 25 24 26 29 28 28 29 30 29 29 29 32 32 32 33 33 34 33 31 31 32 30
23 23 30 20 20 16 21 21 21 23 23 21 22 21 21 20 21 24 23 26 29 28 29 30 31 33 31 30 29 27 27 28 27 27 27 28 29 29 29 30 32 30 28 30
16 22 22 21 23 21 21 25 24 21 22 21 23 23 21 21 22 27 25 22 26 26 28 27 26 23 22 21 19 19 19 21 23 25 26 27 28 30 31 32 31 28 29 30
17 18 25 16 22 19 27 25 18 17 25 22 20 19 20 20 22 18 21 20 20 21 21 20 19 19 19 18 18 20 21 23 25 26 26 27 28 29 30 28 27 27 27 29
21 23 24 25 15 17 20 20 18 19 24 11 15 15 17 18 17 19 19 22 22 20 20 20 22 22 20 19 20 22 24 25 26 26 26 27 27 28 28 27 25 27 30 30
19 21 21 21 18 16 18 20 24 23 15 14 13 14 17 21 21 20 20 23 23 22 22 25 25 23 22 22 23 23 24 24 24 25 26 26 26 25 25 26 29 30 28 28
19 11 18 16 15 19 19 25 22 21 18 16 17 16 20 22 23 23 21 22 23 24 26 27 27 25 24 23 23 24 25 25 25 25 26 26 25 25 27 29 27 27 27 27
15 27 31 20 15 16 15 16 15 14 16 20 21 20 22 21 25 27 24 24 25 27 29 29 28 26 25 25 24 24 26 27 26 26 26 25 25 27 27 26 26 28 27 30
20 14 20 31 32 32 27 20 20 24 23 23 22 23 26 28 28 29 26 26 27 28 30 30 29 29 28 27 27 27 28 28 28 28 27 27 28 27 26 27 28 29 29 31
20 21 24 25 18 22 23 23 30 26 25 28 26 28 31 32 29 27 27 28 29 31 31 32 32 32 31 30 29 29 30 31 31 30 29 28 26 26 27 28 29 29 32 33

GFSCGP_700_spd_072.txt.gz
Wind_Speed
18 17 19 19 19 21 17 16 17 8 7 9 13 10 6 7 6 9 12 12 11 5 7 3 3 6 11 15 15 19 19 18 18 18 16 19 18 18 17 17 18 18 18 18
19 26 19 18 18 13 13 14 16 12 7 6 9 12 8 8 12 7 8 11 15 13 13 6 5 6 5 10 15 15 17 17 15 15 14 15 16 16 16 19 19 19 20 20
27 22 18 18 13 11 11 14 17 13 9 12 15 15 8 10 10 11 12 9 10 10 5 6 6 5 10 12 12 14 14 16 15 15 15 15 16 17 19 18 19 19 19 20
26 22 15 16 15 14 14 11 17 14 13 13 7 14 18 16 14 12 17 15 9 7 7 9 8 10 10 13 14 12 11 12 15 14 16 17 16 15 15 15 15 17 19 21
32 26 24 19 20 16 16 11 11 13 15 17 11 16 2 9 18 18 16 18 16 9 12 10 12 11 12 12 12 13 15 17 15 15 15 16 16 16 17 17 15 18 20 22
26 23 24 25 18 18 16 16 14 14 17 15 18 11 6 8 13 17 15 19 19 19 15 14 12 13 13 14 15 16 17 17 18 17 21 18 17 18 20 20 21 19 19 24
29 29 24 21 21 19 17 15 12 9 11 8 5 11 7 7 11 6 5 16 17 20 19 19 20 20 18 19 19 19 19 20 21 18 16 18 19 20 23 25 25 21 23 23
30 25 31 23 22 18 19 19 9 6 4 4 9 8 6 10 6 4 6 10 10 14 22 24 24 27 25 23 23 23 23 23 23 22 19 16 18 20 20 22 22 24 31 26
30 33 25 26 22 23 18 25 23 13 14 8 11 14 8 7 3 5 5 6 9 12 17 24 29 28 31 28 26 26 25 24 25 24 23 21 20 22 23 24 24 23 22 23
29 27 28 31 25 24 25 16 21 18 5 10 11 14 14 9 6 6 6 6 6 10 15 14 24 27 31 31 30 26 27 26 26 27 27 27 25 27 28 27 26 26 28 31
39 18 23 25 34 27 24 22 17 20 20 8 5 4 12 8 3 6 6 7 5 4 6 7 17 22 28 29 30 31 28 28 31 33 34 31 31 32 34 32 30 31 33 32
41 25 26 29 26 25 25 24 23 18 15 16 15 17 6 6 7 9 9 10 10 9 7 8 7 10 23 25 27 31 29 36 34 35 37 33 37 35 33 34 32 30 31 32
39 39 21 24 28 25 28 31 26 26 23 24 13 10 11 10 10 11 12 13 13 16 12 12 12 10 15 17 25 33 32 37 28 26 33 34 34 29 30 30 29 29 31 32
31 40 33 20 22 26 30 29 30 28 25 20 25 20 17 18 17 16 16 20 15 11 11 12 15 15 12 12 18 21 29 29 29 25 29 29 27 29 28 26 28 28 30 32
18 27 37 33 26 25 27 28 28 30 28 25 22 22 21 18 12 14 9 9 11 13 16 12 13 18 21 21 21 18 20 22 23 24 25 27 27 27 26 27 27 32 33 35
29 21 31 36 31 31 30 30 30 29 28 28 24 26 23 21 19 14 15 15 13 14 17 16 15 21 25 29 23 22 25 25 27 27 27 29 27 29 27 32 34 35 35 35
24 23 30 31 31 27 35 34 23 23 24 23 24 22 20 17 17 17 15 13 16 20 26 21 22 29 34 31 26 25 24 28 30 30 30 30 32 32 34 35 37 36 35 33
11 26 30 26 26 24 27 27 28 24 23 21 21 21 19 20 19 20 18 17 21 27 31 28 30 33 35 34 35 34 29 27 30 31 32 35 35 34 33 33 32 31 31 33
14 17 20 24 29 23 30 19 20 21 25 20 21 22 21 20 18 18 20 20 23 26 24 23 25 31 36 33 30 25 23 23 23 23 24 26 29 30 29 29 29 30 31 29
27 21 19 16 20 17 25 26 15 24 28 21 21 20 20 19 17 19 20 18 19 21 21 22 23 24 25 24 20 18 18 19 21 23 24 25 26 26 26 27 28 28 28 29
24 26 30 25 17 15 18 24 25 26 20 22 21 18 19 20 18 20 21 18 19 19 22 24 24 23 22 21 21 22 22 22 23 24 25 26 26 28 28 28 29 29 28 29
19 26 25 30 23 22 13 17 30 33 27 18 15 16 18 18 20 20 19 21 21 20 21 23 25 25 24 24 25 25 24 24 25 26 26 27 28 29 29 29 28 28 29 31
31 20 23 16 16 24 21 25 16 21 22 16 15 18 14 19 19 18 18 21 23 23 23 25 27 27 27 28 28 28 27 26 26 27 27 27 28 29 30 30 28 30 32 30
24 20 25 13 21 9 11 22 21 27 25 21 14 14 18 21 22 20 20 24 27 26 26 27 29 30 31 31 31 31 29 28 27 28 29 29 30 30 30 30 30 32 29 29
18 12 13 21 16 20 25 15 18 17 16 19 18 17 18 25 25 25 27 28 28 27 28 29 31 35 35 35 35 33 31 31 31 31 31 31 31 30 30 31 30 28 28 29
21 19 22 21 14 13 12 14 27 33 30 28 28 28 27 27 27 28 28 30 30 29 29 31 34 38 39 38 36 36 36 36 36 36 35 33 33 33 31 28 26 28 27 28

GFSCGP_700_spd_075.txt.gz
Wind_Speed
18 21 27 21 17 15 18 21 24 13 10 9 12 17 15 14 7 5 4 5 8 11 3 2 7 15 18 24 29 30 30 26 24 25 27 28 31 31 34 33 29 25 25 24
20 35 24 16 15 22 28 17 15 15 10 5 11 11 15 14 9 10 8 10 10 9 9 4 2 8 13 15 16 18 19 17 17 16 16 17 18 16 15 17 22 26 23 21
32 30 19 16 14 21 16 12 15 14 15 10 15 16 8 13 11 9 9 10 11 9 4 8 5 6 8 11 12 13 14 14 12 13 15 18 19 20 22 21 20 19 19 19
33 29 24 27 24 18 15 12 17 13 10 10 16 9 19 14 17 14 12 17 15 12 3 3 8 9 10 9 11 11 12 13 13 12 13 13 12 12 11 10 12 16 18 17
37 25 31 28 25 17 20 16 13 12 13 16 17 6 16 15 26 21 17 18 19 16 8 3 5 8 10 12 13 13 13 12 13 12 12 13 13 11 12 12 13 14 15 16
30 28 28 30 23 19 17 18 16 15 13 11 23 10 14 14 22 21 22 22 20 18 12 7 6 10 11 12 13 15 14 14 15 14 14 13 10 12 16 14 14 14 17 17
37 36 29 28 27 24 19 18 3 5 3 7 10 11 22 21 11 13 26 17 17 20 18 12 11 12 15 16 15 15 14 12 12 13 10 11 12 15 15 19 15 17 18 20
32 25 36 30 32 25 23 23 11 6 2 4 13 6 10 9 9 12 7 6 21 14 17 16 17 16 13 17 18 19 17 14 16 15 14 14 15 17 19 19 21 19 19 16
27 27 19 33 26 27 22 23 25 4 3 4 12 13 5 11 9 6 6 7 9 14 14 18 20 22 21 19 16 19 20 18 20 21 20 19 23 20 21 22 22 20 21 19
30 18 31 28 30 27 32 17 22 23 7 5 8 12 8 19 6 6 8 11 12 14 11 14 19 24 26 26 21 16 13 20 23 25 25 25 25 27 25 26 28 25 23 22
44 25 23 26 36 34 29 29 23 14 14 6 2 5 3 7 9 7 10 13 13 18 16 18 21 19 25 28 25 22 21 20 23 24 30 31 31 32 32 34 35 27 27 25
40 27 29 33 19 40 36 33 29 20 12 12 17 8 12 5 8 6 12 14 11 12 11 11 9 22 18 26 30 28 27 28 28 23 25 30 33 38 37 35 38 26 24 29
31 32 24 25 29 31 41 31 27 26 28 27 6 11 22 12 10 16 13 16 13 10 16 17 17 11 17 20 19 23 26 26 26 26 23 30 28 29 27 28 23 25 27 29
37 29 33 26 22 16 32 35 32 27 30 28 29 18 14 13 12 15 19 15 15 16 20 19 17 16 13 16 19 22 24 25 26 24 26 27 27 29 25 27 28 28 25 24
21 35 38 32 32 26 28 28 27 30 32 24 28 26 24 21 17 12 13 15 24 18 14 16 18 19 22 19 17 17 20 21 21 24 25 23 24 24 25 28 27 27 27 29
30 25 33 31 28 35 30 26 33 33 33 29 23 24 21 17 19 19 25 16 11 11 12 19 24 21 23 23 24 22 22 23 23 23 24 26 27 28 28 29 30 31 31 34
38 26 18 32 27 24 32 34 28 30 28 27 31 30 19 21 24 17 13 17 17 13 14 20 24 24 28 33 30 28 26 24 26 27 27 29 30 31 32 31 32 33 36 36
33 38 21 19 26 15 16 28 23 25 29 20 24 16 14 14 17 18 20 17 17 18 18 23 25 29 32 34 34 32 31 30 31 34 31 32 32 32 30 33 35 32 30 30
26 29 15 16 29 18 29 25 19 20 29 26 24 18 19 16 18 23 23 20 17 18 22 25 25 26 28 28 31 32 34 33 34 29 27 27 29 29 28 29 30 31 30 30
23 22 18 9 8 9 23 25 20 18 27 20 18 24 19 19 21 18 23 24 22 24 21 21 23 23 23 25 26 28 27 24 21 18 19 21 23 26 27 28 28 28 29 30
25 35 20 14 7 14 9 28 17 21 15 20 21 24 24 23 26 24 20 22 18 20 19 19 20 21 23 24 24 23 20 19 19 20 21 22 24 25 27 27 27 29 29 28
18 20 24 21 8 9 12 14 29 28 28 24 24 18 16 17 16 15 15 19 22 21 21 20 20 23 24 24 23 23 22 23 23 23 24 25 26 26 27 29 30 29 29 28
19 19 17 21 18 11 14 21 16 13 16 18 23 22 21 20 19 20 20 22 21 21 22 24 24 24 25 27 27 26 26 26 25 25 26 27 28 29 29 29 30 31 30 29
27 23 25 23 29 23 24 24 29 28 24 18 17 20 23 23 19 19 21 21 20 22 23 25 26 25 26 28 30 31 31 31 30 29 29 30 31 31 33 32 32 30 29 30
26 17 21 26 23 14 19 25 29 31 28 23 29 17 19 14 15 18 21 24 24 24 27 27 28 28 29 30 33 34 35 36 35 33 33 34 34 35 35 32 31 33 32 29
21 29 18 18 7 14 15 11 14 13 28 28 20 20 22 24 22 19 25 25 27 27 29 30 32 32 33 34 35 38 40 40 39 38 37 37 35 35 36 37 36 32 29 30

GFSCGP_700_spd_078.txt.gz
Wind_Speed
26 30 35 25 22 17 13 18 24 23 13 14 11 10 7 11 8 13 10 9 10 9 8 4 7 12 17 12 12 10 12 19 24 25 22 23 21 28 25 29 41 39 39 35
24 37 32 21 21 21 20 23 25 26 15 13 13 14 10 12 11 14 8 10 7 8 6 2 5 5 13 17 24 25 25 25 24 21 22 21 22 26 31 34 37 39 38 36
34 19 24 21 21 21 21 24 25 21 14 14 10 15 14 13 14 14 10 6 3 6 4 2 4 7 8 10 12 16 17 17 20 23 24 26 27 27 28 29 33 35 34 32
34 36 18 15 23 22 24 11 19 12 15 8 11 9 19 19 16 19 15 12 2 4 1 2 2 5 8 9 10 10 11 13 15 16 18 17 16 18 20 23 25 27 26 24
36 34 31 30 24 18 25 19 21 15 13 16 18 10 24 17 18 25 23 17 8 2 4 4 4 6 6 7 9 10 10 12 13 14 14 14 13 13 14 17 19 20 21 22
29 32 17 27 24 21 17 18 18 17 10 7 22 13 20 17 20 23 22 21 16 10 7 6 10 11 10 11 12 13 13 13 11 11 12 13 13 13 14 14 14 16 16 16
34 35 31 27 26 24 23 22 5 5 3 6 3 6 22 15 18 20 21 22 18 15 15 12 12 11 11 12 13 14 14 13 11 11 13 14 14 15 15 17 15 16 16 16
29 20 38 31 37 29 26 26 13 5 4 4 7 8 6 16 16 22 21 19 20 17 13 17 13 10 11 14 14 15 15 16 15 14 12 12 16 16 15 16 16 18 20 21
19 28 26 39 30 26 29 28 27 20 5 2 5 12 8 7 11 12 12 12 16 22 19 15 13 13 13 13 14 15 18 17 18 17 16 16 17 18 18 19 20 21 22 24
28 8 24 21 31 32 26 26 19 13 7 4 7 10 11 12 14 11 10 9 11 12 15 17 19 18 17 18 16 16 13 17 18 21 21 22 21 23 23 24 27 29 28 32
41 32 14 22 32 27 32 34 20 23 21 6 2 7 9 13 22 14 10 10 11 11 12 12 16 20 22 21 23 22 19 16 18 18 19 22 23 25 28 31 32 34 38 38
44 29 39 39 17 22 33 37 35 22 10 13 17 23 7 9 8 10 10 9 13 15 13 13 12 11 16 22 21 25 25 24 21 19 18 22 26 27 27 30 34 36 45 33
33 41 24 34 43 35 26 29 41 39 34 29 12 7 19 16 7 14 13 16 16 14 13 15 15 13 14 16 19 19 18 21 25 25 26 27 27 29 30 33 29 31 29 18
25 41 47 28 28 23 16 22 36 42 36 30 32 27 19 21 23 15 19 20 20 17 17 14 18 18 17 16 15 17 17 17 19 22 25 26 27 28 28 30 30 30 27 23
27 40 44 44 38 31 21 17 33 45 40 37 35 34 26 23 21 16 17 25 20 17 20 18 21 23 20 19 18 15 13 14 16 20 21 23 26 26 24 25 27 27 28 27
14 21 37 35 40 40 23 28 28 40 37 34 33 31 26 26 21 24 21 16 20 21 22 20 18 19 23 21 22 23 22 22 18 19 23 23 25 26 27 28 30 30 29 29
18 11 17 25 31 31 25 40 32 31 29 33 33 28 29 23 21 22 22 19 17 20 21 18 15 17 17 23 26 27 27 26 24 22 22 24 26 29 32 32 32 32 33 34
13 12 26 11 20 9 28 26 23 36 26 23 24 20 26 25 30 19 20 21 18 18 21 17 15 18 21 23 27 29 30 31 32 29 29 31 33 34 36 35 34 35 35 36
26 13 16 16 20 13 23 19 22 26 31 22 25 19 17 18 20 20 16 17 16 17 14 15 18 21 21 22 23 26 27 29 32 32 34 35 35 32 31 30 31 31 30 31
19 20 24 14 15 9 27 36 20 12 22 21 25 27 17 24 23 21 18 13 16 17 17 18 22 23 20 21 22 24 25 27 29 33 32 28 26 24 22 23 25 28 30 30
12 22 20 17 10 11 6 11 30 26 17 19 16 21 19 22 19 17 14 14 19 21 21 19 19 19 18 18 20 23 26 28 29 27 24 24 23 23 24 25 26 28 28 28
20 9 8 10 6 12 19 11 21 28 28 25 17 14 18 16 20 20 19 17 19 19 17 15 17 18 18 20 21 23 25 26 25 25 26 26 26 26 26 27 29 29 30 31
23 23 7 9 15 6 20 21 12 13 4 22 34 31 24 20 19 14 16 17 17 18 18 18 20 22 24 23 23 25 25 25 27 28 29 30 29 30 30 31 31 32 33 33
23 23 24 22 20 19 20 21 18 22 13 15 24 18 19 18 16 14 13 15 17 19 19 22 24 26 26 27 26 28 28 27 30 32 33 34 33 34 34 34 34 33 33 34
15 24 26 30 28 25 26 27 28 26 26 30 24 22 17 15 11 11 13 16 19 20 23 25 26 28 29 30 31 32 32 31 32 34 36 37 37 37 37 37 37 36 37 39
36 26 25 22 15 19 12 12 23 32 30 28 29 36 34 21 17 14 17 17 19 23 26 28 28 29 31 32 32 34 35 36 37 36 36 36 37 37 38 39 40 42 46 48

GFSCGP_700_spd_081.txt.gz
Wind_Speed
28 32 40 35 28 25 18 14 16 11 9 24 16 15 14 11 15 15 11 12 10 9 8 5 9 17 10 16 13 18 20 16 20 18 32 15 26 37 30 23 41 42 43 42
29 39 36 30 27 26 21 21 18 14 9 18 16 17 17 14 16 11 8 10 10 7 7 7 5 13 23 21 17 13 19 20 22 19 20 16 20 19 23 30 39 23 34 38
38 31 25 38 32 29 26 23 14 18 18 12 11 13 16 15 18 15 13 10 4 7 6 5 3 8 10 16 19 22 21 22 23 23 23 23 22 22 24 27 30 31 38 40
32 35 17 23 36 26 28 20 19 19 17 12 11 9 18 22 18 15 14 12 8 4 6 4 6 5 4 6 8 11 15 20 23 24 24 23 24 24 24 24 28 35 36 37
30 32 37 21 21 28 29 17 16 18 26 17 15 14 27 17 16 16 17 16 11 3 3 3 2 2 4 4 4 5 8 12 14 17 18 16 15 18 20 21 23 27 30 31
34 29 26 33 31 27 19 18 17 20 17 10 16 11 24 17 19 16 12 13 11 8 3 3 6 6 4 6 6 8 8 8 9 11 13 13 15 16 17 19 19 21 24 24
30 38 29 22 20 25 27 24 4 5 4 8 13 11 26 18 12 13 9 7 10 10 11 8 6 6 6 6 7 9 9 7 7 7 8 9 10 11 13 15 15 18 19 20
31 21 39 32 36 28 31 26 11 6 4 6 9 8 17 10 13 16 15 11 10 13 12 12 9 7 7 7 9 10 11 10 10 10 9 9 12 11 13 15 17 19 19 19
12 21 28 23 37 35 32 27 29 28 4 3 9 14 19 18 13 14 16 13 12 11 17 14 12 12 12 12 10 11 14 14 13 12 13 14 15 16 16 17 19 19 20 22
26 10 10 23 19 41 39 26 18 16 7 5 5 12 12 10 12 14 16 13 7 5 10 15 15 13 14 15 15 14 16 19 19 19 19 17 18 19 19 21 23 23 25 26
28 37 18 14 29 32 38 36 28 25 24 6 2 10 20 12 16 14 13 10 7 8 7 9 9 8 13 20 22 20 18 17 22 22 17 20 21 24 25 27 29 30 32 32
8 15 30 52 12 21 33 41 37 24 8 17 24 23 13 6 16 24 13 10 9 10 7 7 9 5 9 6 11 17 18 22 23 18 20 22 19 22 21 26 28 30 31 33
10 7 17 25 33 44 34 21 32 36 28 34 15 14 23 17 11 12 13 13 13 15 14 13 11 11 11 11 11 11 13 15 17 22 24 26 23 24 19 19 25 30 32 37
26 24 27 23 23 20 27 30 25 30 33 28 39 29 29 16 21 16 18 15 14 18 19 15 13 11 12 12 12 11 11 9 10 15 19 21 24 23 22 22 23 27 28 30
25 22 24 29 34 36 29 30 31 26 31 30 34 39 39 30 25 22 23 24 19 22 24 18 15 14 15 17 15 15 14 11 14 15 16 18 19 20 22 23 26 27 27 27
23 19 19 21 29 35 39 31 33 26 18 26 40 42 36 35 31 28 25 23 20 19 19 21 19 15 13 13 15 16 19 20 19 19 19 19 22 23 24 25 27 29 30 29
28 27 17 20 21 31 22 49 46 43 28 18 35 43 38 28 30 26 23 27 26 20 18 20 21 16 15 15 14 16 19 20 21 22 22 23 24 25 27 28 31 33 36 35
23 28 18 7 11 4 33 35 40 46 53 36 31 26 26 27 27 29 25 26 23 22 19 20 20 19 17 17 19 21 21 20 22 24 27 27 27 28 30 33 35 37 37 37
18 20 11 6 15 8 12 19 25 28 41 36 36 25 19 23 21 26 29 30 21 18 16 18 19 18 19 19 20 20 21 21 23 24 26 29 31 33 35 36 35 31 28 30
22 21 21 17 4 8 8 9 21 19 29 29 32 25 21 21 20 18 19 24 23 21 17 19 22 21 18 16 19 19 19 21 23 26 29 30 33 35 34 31 27 25 25 26
13 13 19 21 16 8 12 10 14 17 11 18 31 16 21 31 26 18 19 20 19 18 18 23 22 19 17 18 18 17 17 21 24 26 29 31 32 30 28 25 24 26 27 28
17 10 8 9 13 10 7 10 6 16 30 11 12 30 16 24 23 20 13 15 18 19 22 22 17 15 15 15 16 19 21 23 26 28 29 28 27 27 27 28 29 30 30 31
25 24 12 10 22 2 6 20 19 11 3 26 31 26 22 21 16 17 16 17 22 24 20 16 13 14 15 16 18 21 22 25 27 28 28 28 28 29 31 32 33 33 34 34
22 24 23 17 19 13 13 13 16 14 13 3 5 22 30 24 32 17 16 17 23 22 19 16 15 15 16 18 21 23 26 27 28 29 29 29 31 33 34 35 35 36 37 37
24 15 17 20 25 21 20 22 19 25 29 22 13 12 7 16 21 23 20 20 22 21 17 15 15 16 18 21 23 26 27 28 28 28 28 29 31 32 33 34 36 38 39 39
24 28 24 19 12 20 19 19 15 17 14 24 26 24 20 15 12 18 22 20 18 19 18 15 16 16 18 24 28 30 29 28 28 28 26 24 26 29 31 31 32 34 37 41

GFSCGP_700_spd_084.txt.gz
Wind_Speed
33 33 38 35 31 27 20 13 14 17 15 17 16 19 15 19 18 11 7 7 9 11 12 9 13 16 10 21 20 17 19 18 16 13 18 17 19 27 33 35 38 34 26 30
33 38 35 32 28 29 27 24 21 17 14 14 16 18 15 17 18 14 9 7 7 7 8 7 7 15 7 19 16 17 20 24 17 24 12 24 19 31 34 36 38 38 37 36
33 31 33 36 32 30 30 31 23 19 15 17 14 21 18 20 21 21 18 9 3 2 6 6 4 8 11 12 8 11 20 21 17 23 19 29 19 31 34 33 33 41 40 40
25 31 26 16 29 34 33 30 22 22 21 12 13 11 27 24 26 24 20 12 8 3 2 3 3 4 8 8 11 12 12 14 22 24 22 22 18 19 20 21 32 32 36 38
21 21 28 37 29 23 35 29 24 19 18 22 25 11 24 29 29 18 12 9 9 6 3 1 1 2 5 7 7 10 13 15 16 16 18 20 19 20 20 23 30 31 39 32
34 27 18 19 28 16 17 22 19 18 18 8 21 14 24 11 9 8 13 11 12 11 8 3 2 2 3 5 8 10 11 12 13 14 15 16 15 16 17 17 19 23 26 29
31 36 31 22 17 22 31 24 3 3 4 5 8 14 28 20 20 17 10 5 13 14 10 8 1 2 0 0 4 6 9 11 11 12 13 13 15 17 17 18 19 21 23 24
26 21 37 30 31 17 27 33 12 6 4 4 12 9 13 14 10 12 12 9 12 15 13 11 8 3 1 1 2 4 6 8 9 10 11 12 14 15 16 18 18 18 19 20
6 13 14 19 16 35 19 32 32 17 1 1 7 12 18 15 16 15 14 15 15 15 16 13 12 8 7 5 3 5 8 10 11 11 12 12 13 15 16 17 18 18 20 22
18 14 18 8 18 23 39 16 15 18 5 5 5 11 13 5 11 11 10 13 11 9 12 18 16 12 10 11 10 9 10 13 14 14 14 15 16 15 15 19 20 21 23 25
7 18 21 15 11 21 29 37 28 15 21 6 2 7 18 19 12 12 12 11 11 7 5 10 14 12 13 15 18 17 14 13 15 18 20 19 20 20 21 22 24 25 26 28
18 8 8 32 39 12 15 30 40 30 7 13 23 22 17 11 9 8 18 14 12 8 8 7 8 9 6 9 7 11 18 20 18 17 15 17 23 21 23 27 25 29 31 33
13 5 11 11 26 31 33 30 18 37 30 29 16 9 15 23 19 15 18 17 13 11 11 9 6 5 5 7 4 5 9 13 14 16 19 22 16 22 18 22 24 25 26 29
20 19 16 11 17 22 27 28 34 28 26 29 40 26 26 21 20 17 15 18 17 15 16 17 15 7 7 8 7 5 5 9 12 12 16 20 21 21 24 23 23 22 22 23
13 21 25 29 28 29 37 35 26 38 40 29 27 32 31 29 29 21 22 19 14 19 18 17 19 11 9 8 7 7 7 6 7 9 11 11 12 15 18 21 23 24 25 25
16 17 22 32 31 23 34 36 37 34 38 39 34 28 29 20 27 30 32 27 24 22 24 20 21 18 16 10 7 7 8 12 14 14 16 16 17 19 20 22 23 25 25 27
18 15 14 25 28 31 24 40 45 40 38 38 36 29 19 37 40 36 31 34 33 28 25 21 21 21 20 15 14 14 12 14 17 18 19 20 21 23 24 25 26 27 28 30
25 23 17 20 26 9 25 31 38 42 43 45 44 39 24 25 32 29 28 28 29 26 25 26 22 22 21 18 17 17 18 20 21 22 22 23 25 29 30 29 28 30 32 35
24 28 17 8 11 25 19 15 26 31 45 45 50 47 43 24 22 27 24 27 32 26 22 24 22 23 23 20 20 22 22 23 24 24 24 25 28 29 29 31 33 34 36 37
28 28 27 12 4 6 21 14 14 20 30 25 29 33 39 29 31 25 20 26 24 30 22 22 22 24 26 24 26 25 22 20 19 19 20 22 24 27 30 32 34 33 29 25
18 26 31 25 11 16 19 23 10 18 13 9 19 16 19 30 33 23 18 19 19 26 28 26 24 25 27 27 27 24 21 19 17 19 21 23 25 28 30 32 30 25 24 25
11 10 12 16 12 11 14 21 1 3 5 18 19 12 23 18 26 16 16 15 18 21 22 24 27 28 29 27 25 22 20 18 17 19 20 22 24 26 27 27 27 27 28 30
26 25 9 8 8 16 17 24 13 14 10 9 18 20 13 24 20 8 25 16 19 21 16 21 26 25 25 23 22 20 19 18 18 19 21 23 25 25 25 25 27 29 30 32
22 21 25 24 21 18 20 21 20 24 18 21 4 14 17 16 22 18 20 24 23 28 32 31 30 26 24 21 21 19 18 18 19 22 25 27 27 26 26 27 28 29 31 32
18 20 22 23 28 18 14 13 20 14 9 16 19 7 3 8 12 20 25 19 22 22 29 27 24 23 20 18 17 17 18 20 23 27 28 28 28 25 23 22 22 22 23 25
23 25 25 27 22 23 12 14 16 16 8 9 10 19 12 14 2 4 14 20 15 16 17 22 14 13 15 16 15 20 24 27 29 30 28 27 26 23 21 21 21 23 25 28

GFSCGP_700_spd_087.txt.gz
Wind_Speed
33 35 38 32 32 29 19 19 19 17 14 21 19 20 17 15 13 13 12 8 10 9 11 12 12 20 4 16 13 12 12 11 17 11 13 13 13 24 33 40 47 47 43 40
30 39 34 33 24 27 27 26 29 24 19 18 18 21 20 17 12 9 10 10 9 7 7 9 9 14 8 15 12 11 17 12 14 14 13 15 18 22 35 34 38 48 55 51
29 22 26 34 30 27 30 31 30 26 20 19 23 24 18 17 18 16 14 13 11 4 3 5 7 9 10 4 11 13 13 19 19 16 16 14 19 22 30 36 36 40 39 42
20 23 19 16 26 30 32 31 28 26 21 11 12 13 20 24 18 15 15 12 13 7 2 1 2 4 6 6 7 2 13 15 20 19 22 17 17 15 22 31 33 37 31 30
16 14 22 32 17 19 24 21 25 25 22 18 17 14 14 12 24 3 8 6 14 12 5 3 1 0 4 6 8 10 8 9 19 19 21 21 25 18 18 20 29 29 25 38
27 18 11 8 16 28 19 14 8 13 14 10 18 18 15 13 6 8 3 10 12 15 9 5 3 2 2 5 7 10 11 11 11 11 13 17 19 17 21 24 25 25 28 33
25 30 30 23 15 10 20 13 5 4 5 8 11 14 28 19 16 16 1 4 14 21 16 9 6 5 5 5 6 7 11 12 13 13 14 15 16 16 18 19 19 24 27 31
15 13 32 29 30 20 21 31 8 6 6 7 16 10 16 13 9 6 5 7 11 21 19 15 10 8 8 7 7 8 8 10 12 12 12 13 15 15 15 16 16 18 20 21
1 7 7 11 13 29 21 22 28 14 1 2 7 14 21 16 19 14 10 9 14 16 17 16 16 12 9 9 9 9 10 11 11 12 12 12 12 13 15 16 17 19 20 21
3 7 11 9 8 19 25 12 11 19 7 11 7 13 14 3 10 8 12 9 17 16 17 20 19 17 14 12 11 11 11 11 13 14 13 12 11 11 13 15 16 18 19 23
9 5 9 10 4 9 20 27 15 8 18 8 5 8 18 17 12 13 12 9 15 14 10 12 21 20 18 17 16 15 13 13 16 16 17 17 16 16 16 17 19 21 22 24
11 6 5 15 21 11 8 11 26 24 12 10 19 22 9 8 5 10 12 12 13 11 10 10 12 16 15 15 16 17 19 20 18 17 19 20 20 21 23 22 22 23 24 27
8 4 5 7 7 15 14 13 17 20 22 32 17 12 10 23 20 16 16 18 16 15 13 13 12 11 12 10 10 9 13 16 21 21 20 20 24 23 23 17 20 20 23 29
15 12 13 11 11 16 19 18 17 17 22 24 35 30 16 16 19 20 16 18 23 20 18 16 15 11 10 10 10 6 7 10 15 18 19 21 22 22 19 22 27 27 30 31
16 13 12 17 21 25 28 28 26 32 36 28 25 27 24 32 32 28 21 13 18 24 22 21 20 19 12 12 12 11 9 9 11 12 10 10 12 14 18 23 26 28 29 30
11 12 11 19 18 22 29 28 30 37 39 42 31 36 28 25 22 27 30 28 22 20 18 22 22 20 22 16 15 14 14 12 11 12 12 14 16 17 17 21 23 25 26 27
16 11 9 9 3 13 21 31 26 36 41 46 37 31 20 20 23 28 28 28 29 25 30 24 22 23 24 23 21 18 17 16 17 17 18 19 19 22 21 23 25 25 26 28
23 18 14 14 16 9 33 23 15 26 29 34 40 33 27 24 18 23 29 33 36 33 31 34 27 30 25 27 28 25 24 23 20 20 20 22 23 24 26 26 28 28 30 31
27 24 11 7 12 23 29 20 18 22 25 20 32 39 43 41 40 36 30 27 28 28 25 26 30 31 32 29 30 30 27 25 24 25 26 26 27 29 30 31 32 33 33 34
27 27 25 11 9 6 8 12 14 19 28 12 7 12 18 24 39 49 35 28 27 28 27 31 28 31 31 31 32 32 30 29 28 29 28 26 24 24 24 25 28 31 34 35
10 19 33 26 16 18 19 17 13 11 18 11 7 6 12 18 23 22 27 37 25 26 29 35 35 34 33 32 35 33 33 31 30 29 26 23 22 21 22 23 24 26 27 27
9 10 17 24 14 13 10 15 12 14 21 15 7 8 13 15 16 12 24 23 23 22 22 27 35 31 35 36 34 34 33 31 30 27 23 23 21 21 22 24 25 25 23 21
23 27 10 12 8 12 14 21 17 19 17 18 16 5 15 18 24 19 19 19 21 16 16 14 19 28 28 30 32 31 28 25 23 24 24 23 22 22 23 23 24 24 24 25
23 20 26 21 24 29 24 19 20 21 18 21 16 16 11 15 19 27 22 20 21 20 17 15 11 19 21 21 20 20 25 28 31 26 21 21 21 21 22 23 23 24 24 24
18 15 20 24 25 21 18 23 17 15 16 18 15 14 21 11 13 21 23 23 27 22 14 23 29 31 32 36 37 29 25 27 21 20 19 19 21 23 23 21 20 20 20 20
20 21 24 26 25 21 20 17 17 22 16 16 12 12 17 24 5 18 25 22 15 13 20 24 23 18 20 19 20 18 21 18 16 18 19 23 19 18 18 17 17 17 18 21

GFSCGP_700_spd_090.txt.gz
Wind_Speed
32 28 33 31 34 26 19 17 19 14 10 13 19 23 23 18 17 16 15 12 13 12 14 12 13 17 14 10 12 17 8 12 6 13 19 18 27 29 34 40 40 39 45 44
20 35 29 26 24 25 24 21 24 19 16 16 18 22 23 22 21 17 14 10 13 14 12 10 10 12 12 3 10 9 9 12 12 9 15 13 10 23 29 40 38 43 49 52
25 12 23 29 32 26 25 26 25 20 13 17 20 25 25 22 22 22 24 19 15 12 11 8 7 7 8 6 5 7 10 13 11 16 15 17 18 18 27 32 33 42 44 48
22 22 17 18 26 23 27 23 22 22 17 15 7 13 15 15 19 20 18 20 16 14 12 6 5 4 4 5 4 2 10 14 15 15 16 15 13 18 20 25 30 30 34 42
17 18 25 23 22 17 21 17 17 16 20 21 20 14 13 10 12 12 11 21 19 17 13 8 3 3 2 2 5 6 4 11 18 21 21 17 15 19 17 20 27 30 39 45
17 13 12 19 16 19 8 12 7 9 13 16 22 18 12 12 7 6 5 11 12 19 15 10 6 3 1 2 4 5 8 10 12 14 15 18 21 22 17 20 28 28 29 31
27 23 15 13 8 14 19 13 6 8 8 9 10 16 24 8 6 11 11 9 16 17 20 13 9 7 5 4 5 6 7 8 11 13 12 13 15 23 19 20 23 27 30 31
17 12 28 24 27 14 20 24 10 9 8 7 15 10 17 9 9 7 10 8 12 16 23 17 11 10 9 7 6 7 9 10 9 10 13 14 16 16 19 20 22 23 26 28
4 8 6 14 22 25 15 24 23 19 17 10 15 12 17 19 14 11 11 14 12 12 18 17 14 9 10 9 8 8 7 9 11 11 10 10 12 14 14 17 19 18 19 22
2 3 3 6 8 18 26 9 14 18 7 11 12 16 12 5 10 6 8 13 13 16 20 20 17 12 11 11 11 11 11 11 11 12 12 12 12 12 13 13 13 13 15 17
3 5 3 5 7 9 17 21 15 13 22 10 10 12 11 16 14 13 10 12 15 21 19 20 23 22 19 15 16 14 14 15 15 16 16 16 15 15 16 16 16 16 18 20
4 1 5 9 11 9 7 13 22 24 16 18 22 21 1 5 5 3 3 5 13 19 20 18 19 27 25 21 20 19 19 17 16 19 20 19 19 19 19 18 18 19 20 22
4 4 3 3 5 13 10 11 10 10 16 28 19 8 6 10 20 18 17 10 9 16 17 16 12 17 25 20 19 21 23 23 24 23 22 24 25 25 24 23 22 22 21 21
6 6 8 9 4 4 7 9 11 9 12 19 27 24 24 26 18 18 17 15 10 15 19 19 18 18 19 20 18 18 18 20 21 25 28 27 25 25 28 27 24 23 21 24
13 12 12 13 16 21 21 22 22 21 19 24 26 26 21 18 22 23 20 18 19 17 22 23 21 20 17 18 17 19 16 16 18 21 23 23 24 25 27 29 25 28 31 31
9 7 10 13 16 18 25 31 30 28 27 28 28 35 31 28 25 25 22 25 26 21 14 20 26 27 24 21 19 19 21 17 17 17 20 20 20 21 21 24 26 30 33 37
8 8 4 6 5 8 18 25 35 35 29 26 29 28 23 27 28 28 25 22 25 26 26 25 21 22 26 24 27 25 24 23 21 19 20 19 19 21 23 25 25 26 30 32
12 11 7 7 7 9 11 9 11 20 21 21 24 21 23 24 25 24 28 28 31 30 33 30 29 29 27 25 30 31 28 28 25 25 24 24 24 26 26 28 31 30 30 32
22 17 6 6 12 19 22 10 12 17 19 19 20 19 10 17 25 31 28 28 30 32 35 39 34 35 40 35 30 35 36 36 32 30 29 27 28 28 29 31 31 30 31 31
20 21 16 7 5 4 2 7 7 12 22 16 14 13 17 18 16 22 26 39 40 34 30 31 40 35 39 42 40 39 38 36 39 35 33 33 32 31 30 31 31 31 32 34
20 16 22 19 14 15 16 16 17 10 9 13 19 18 21 19 11 16 21 31 41 45 38 32 35 38 35 39 40 38 34 37 40 40 38 35 34 32 29 30 29 31 32 33
13 13 12 17 14 14 7 7 4 8 17 18 18 22 22 14 17 11 18 20 29 33 38 42 36 41 44 40 37 37 38 37 42 42 41 38 34 30 28 27 33 33 31 33
13 16 12 12 10 10 15 17 16 19 23 20 20 24 20 10 11 14 16 19 17 23 27 32 32 40 45 47 42 37 37 40 39 39 37 34 29 27 30 31 30 30 30 31
19 18 16 18 20 18 18 19 23 21 21 30 27 22 18 15 13 20 20 21 20 19 22 21 17 24 29 32 33 30 33 33 31 28 27 26 27 28 34 30 25 27 27 28
15 15 16 18 18 16 16 15 16 22 17 19 25 17 16 15 16 23 26 23 28 25 21 20 17 14 16 23 26 29 33 27 25 24 24 21 22 24 23 20 22 23 24 22
15 15 16 18 14 17 22 18 18 20 20 18 23 22 15 15 22 28 11 20 24 29 28 22 17 20 23 23 24 23 24 26 27 30 21 20 18 19 19 19 17 17 18 18